GFSMA_250_spd_000.txt.gz
Wind_Speed
29 29 30 30 29 29 29 24 23 24 20 18 18 20 23 31 43 54 56 70 65 63 76 70 65 70 76 71 65 63 61 58 59 61 62 56 60 63 58 54 53 53 50
30 29 30 31 31 32 33 32 34 34 31 28 25 25 26 23 25 28 40 57 69 68 64 79 76 73 74 77 78 74 66 66 63 64 61 60 62 64 59 60 60 57 54
37 37 37 38 38 39 39 40 39 40 40 38 37 36 35 35 35 35 33 32 43 66 71 66 82 78 76 83 84 91 88 83 75 74 70 71 71 66 65 67 68 62 58
42 43 43 42 41 42 42 42 42 43 44 45 47 49 50 48 46 45 45 44 39 39 49 68 76 82 86 78 79 82 88 90 88 84 86 81 74 75 75 73 75 68 58
46 47 48 50 51 52 53 53 52 51 52 53 53 54 55 56 56 54 52 52 52 51 50 44 64 75 82 93 90 83 87 91 94 97 95 93 84 79 77 80 79 68 63
55 56 57 59 60 61 62 62 63 64 63 62 62 63 64 65 65 64 62 59 59 59 58 60 55 59 76 87 90 99 86 92 89 92 90 87 83 82 81 82 78 72 66
62 63 64 67 68 67 68 70 71 72 72 73 72 74 74 75 76 74 72 71 70 70 70 68 67 64 62 77 89 93 100 96 91 92 94 91 85 89 85 72 76 78 75
69 70 72 74 76 79 80 81 81 82 82 84 83 83 81 82 83 82 79 78 79 80 79 78 76 74 73 70 76 92 103 101 107 95 96 95 89 90 85 84 69 64 74
78 80 83 85 89 93 94 95 97 97 96 94 95 95 91 91 93 93 90 89 88 88 89 88 86 84 84 82 80 82 97 108 107 113 101 100 100 102 96 92 85 73 77
89 93 95 97 100 103 105 105 105 103 103 100 100 103 107 102 100 99 100 99 96 96 98 97 96 95 93 92 91 88 90 101 110 113 115 107 106 101 103 98 100 89 85
97 101 106 108 108 108 108 107 107 107 103 101 99 97 98 101 99 96 95 99 99 102 100 99 99 99 100 99 99 98 96 97 104 112 117 116 115 118 114 109 108 102 99
106 109 111 111 110 110 110 108 104 101 95 94 96 94 92 93 94 97 97 94 97 103 103 103 102 101 101 103 103 105 103 102 104 110 116 122 119 121 123 119 115 105 104
107 109 111 110 106 107 107 103 98 94 87 84 82 82 82 83 84 87 88 89 93 96 102 104 105 104 103 105 104 105 106 104 106 108 115 119 125 123 126 128 126 120 114
112 111 109 107 105 102 98 97 93 85 79 75 77 75 76 78 80 80 82 82 85 90 95 102 105 104 103 101 101 101 101 103 105 107 112 119 125 129 125 129 129 125 123
116 112 110 106 99 94 91 89 84 80 75 73 73 75 74 73 72 73 77 78 76 75 81 88 98 102 101 100 97 95 95 97 103 106 110 117 121 128 131 127 130 130 130
112 111 106 98 93 87 84 82 81 78 75 74 72 73 75 76 75 72 71 72 73 69 68 78 82 92 96 96 93 91 90 90 98 101 107 112 117 121 131 131 129 129 131
111 104 99 94 90 87 83 81 79 77 74 76 76 74 75 75 74 73 70 66 64 64 60 68 77 85 92 91 90 88 87 86 90 98 102 107 112 118 124 131 132 131 136
107 100 96 93 89 85 83 81 78 76 76 77 78 78 77 76 73 72 71 67 63 64 61 63 74 79 86 91 86 84 81 82 84 94 100 105 109 115 121 127 132 132 131
102 97 94 92 89 86 82 78 77 75 74 74 75 75 75 74 71 67 65 65 66 65 65 64 71 78 82 89 88 84 81 79 80 88 98 103 108 112 119 124 130 133 133
100 97 94 90 88 84 80 77 74 72 71 72 72 71 70 68 66 66 65 66 65 65 66 65 68 75 80 86 87 84 79 78 79 83 91 98 104 110 115 124 126 132 135
98 94 90 86 81 77 75 72 69 67 65 65 65 63 61 61 61 61 61 63 62 61 62 61 63 68 73 77 80 81 76 76 77 80 86 90 97 105 111 119 126 128 137
92 87 83 78 74 70 66 63 61 61 60 60 59 58 56 56 56 55 56 57 60 59 59 59 61 65 70 73 76 77 75 72 73 78 80 88 89 95 106 114 120 127 132
85 80 75 71 68 64 61 59 57 57 57 56 55 54 53 53 51 50 53 55 56 57 57 56 58 61 65 69 72 73 75 73 73 74 73 80 86 90 95 105 113 124 127
77 73 69 64 62 60 57 55 54 54 54 51 47 46 48 49 46 48 50 51 52 53 52 52 56 60 61 64 67 71 73 72 72 73 71 75 82 87 93 97 106 115 125
70 67 64 62 60 59 55 53 51 50 47 43 41 40 44 45 45 46 48 48 47 45 45 46 50 53 55 57 59 62 67 70 73 73 69 71 76 82 88 95 100 109 119
67 65 63 58 54 52 49 47 46 44 41 39 38 39 41 45 44 44 44 43 44 42 42 43 45 48 51 51 54 56 61 64 68 69 71 71 73 76 81 87 96 101 111

GFSMA_250_spd_003.txt.gz
Wind_Speed
32 34 34 33 33 32 31 31 29 27 27 30 31 27 27 25 21 26 39 49 66 65 63 66 65 69 66 70 64 65 67 69 68 67 63 59 59 60 61 59 61 63 60
41 40 39 39 38 38 37 35 34 35 34 34 35 35 34 33 32 30 27 29 48 61 71 67 72 62 73 65 74 71 71 73 70 73 68 62 64 63 59 60 64 63 64
45 46 45 43 41 41 42 43 42 42 41 41 41 43 41 41 42 41 41 38 36 38 52 71 77 72 63 73 75 78 76 75 76 73 73 71 72 69 65 62 63 65 64
46 46 47 46 47 48 50 51 51 51 52 52 51 50 49 49 50 51 52 50 48 46 43 44 59 71 77 71 78 81 80 81 81 77 75 74 75 72 71 70 67 67 71
50 52 53 53 54 55 56 58 59 59 61 62 62 60 60 60 59 58 59 60 58 55 55 54 52 54 67 79 78 87 87 86 85 86 86 83 79 77 75 75 71 70 71
57 59 60 61 62 62 64 65 68 71 71 70 69 68 69 69 69 69 69 67 67 66 64 62 63 61 61 63 77 84 92 93 92 92 89 90 86 81 78 79 77 74 72
69 67 67 65 65 67 69 71 73 75 77 80 79 80 80 79 77 79 79 78 76 76 74 72 70 70 70 68 71 73 87 91 95 97 97 98 96 95 89 90 87 75 55
69 70 74 77 79 81 83 85 88 89 88 89 91 92 91 92 90 89 86 85 87 86 85 84 82 80 78 79 76 80 81 85 98 100 101 103 103 102 98 99 95 89 83
76 79 81 81 86 90 93 96 98 99 99 99 98 98 97 93 95 95 94 92 93 93 94 92 90 89 88 86 86 84 85 86 86 100 103 103 108 107 105 106 101 99 99
83 86 88 89 91 95 96 98 100 101 103 100 97 99 95 92 91 93 93 92 95 98 98 100 100 99 98 97 95 93 92 90 91 90 103 113 106 111 111 107 106 102 97
90 94 96 97 95 98 103 101 99 99 102 103 101 97 96 92 92 90 87 91 93 96 99 101 104 107 109 108 107 104 101 99 98 94 98 96 115 109 113 109 112 108 99
97 99 100 103 104 108 111 104 100 101 102 102 100 98 96 92 86 86 89 89 91 95 94 96 101 107 112 115 115 114 111 108 106 104 101 104 99 112 112 112 113 108 106
103 105 109 111 113 114 113 104 102 100 100 99 97 94 92 89 84 82 82 83 85 88 90 93 99 103 107 112 117 120 119 115 114 112 111 109 109 109 113 119 124 114 112
113 116 116 117 117 112 106 99 96 97 95 93 90 90 88 84 79 76 77 76 80 79 82 87 91 96 100 103 111 116 120 118 116 115 116 116 115 111 114 117 122 122 120
122 119 116 113 109 105 100 94 89 87 87 87 86 85 83 79 75 75 74 75 76 77 80 84 88 93 96 98 103 104 104 111 115 114 116 118 120 117 114 119 122 127 123
122 117 115 110 103 97 92 89 84 82 80 80 81 80 79 79 76 76 75 75 75 76 76 82 87 91 95 98 99 100 98 97 103 109 114 117 119 118 118 119 123 125 131
117 112 105 100 97 94 92 90 86 82 79 78 77 77 77 76 77 77 76 76 75 75 74 77 84 88 94 98 101 100 98 94 94 97 103 110 114 116 116 120 124 126 129
109 103 99 96 95 95 93 89 84 80 75 73 72 72 73 73 73 75 75 74 74 73 70 73 81 83 87 93 96 98 99 97 91 91 95 100 105 109 111 116 122 128 130
102 99 97 98 95 90 84 80 76 73 70 68 67 67 69 71 72 72 72 71 71 70 69 68 75 81 85 90 95 95 95 94 91 88 89 90 97 101 105 110 115 122 129
101 99 96 91 84 80 75 72 70 67 64 62 61 62 63 64 65 65 65 66 66 66 67 66 69 77 80 87 93 97 96 93 90 85 82 85 90 94 99 104 109 116 122
99 93 86 81 76 73 68 65 62 61 60 58 56 56 56 55 55 56 58 59 59 61 62 62 65 71 76 79 86 90 90 89 84 81 78 78 83 88 93 100 106 110 114
91 85 81 75 69 63 59 56 54 54 54 54 54 52 51 52 52 54 55 56 56 57 59 57 58 63 69 69 74 78 78 78 78 75 71 71 72 78 86 94 101 105 110
81 76 72 66 63 59 58 56 54 53 52 52 51 51 51 50 51 51 52 52 54 54 53 50 52 56 59 62 63 68 70 69 72 70 66 69 69 76 83 88 93 96 103
72 68 65 62 62 60 57 53 51 50 48 45 44 45 46 47 46 47 48 47 46 47 47 49 52 54 56 58 60 62 64 67 68 67 63 65 64 69 76 84 88 89 96
68 66 62 60 57 55 50 49 47 46 42 39 37 38 41 42 39 39 41 40 42 43 46 49 52 53 53 54 55 58 61 64 67 65 62 64 62 67 70 76 83 86 89
68 64 61 55 50 49 47 46 43 41 37 34 33 36 36 36 34 36 37 38 40 42 44 44 46 47 48 48 50 53 55 58 61 61 62 62 61 64 64 70 76 82 87

GFSMA_250_spd_006.txt.gz
Wind_Speed
40 39 38 38 37 38 37 37 37 36 34 32 30 30 30 30 30 29 25 27 37 49 66 67 63 61 67 62 63 62 60 61 62 59 59 62 63 67 66 69 71 70 70
42 41 40 41 40 38 37 37 39 41 41 40 39 39 38 35 35 37 37 35 33 36 50 63 74 67 65 69 68 70 66 62 64 69 67 67 68 65 66 68 69 69 70
46 48 48 47 47 48 49 47 46 45 45 47 48 48 46 45 44 43 43 44 44 43 41 43 66 79 74 70 72 72 75 72 70 67 74 72 72 72 66 68 69 64 66
50 51 51 52 53 54 54 53 52 54 55 57 57 56 55 55 56 55 52 51 51 52 52 50 48 56 78 79 75 76 82 80 78 76 73 77 76 77 72 70 67 67 66
56 57 58 59 59 61 62 60 59 59 61 64 65 65 65 65 64 63 62 64 62 60 60 61 60 57 58 69 85 85 83 85 85 82 83 82 81 82 78 77 74 72 69
61 64 66 69 69 70 69 69 70 70 68 64 65 68 71 72 75 74 73 70 70 71 69 67 68 68 68 66 65 81 89 88 84 90 86 89 87 85 81 77 80 76 75
69 71 69 68 70 72 74 74 74 75 74 78 74 74 77 76 82 83 84 81 79 77 77 77 77 77 76 76 74 74 75 91 96 90 93 94 93 92 91 83 84 82 83
71 70 70 72 76 77 76 83 85 87 86 88 87 87 81 84 87 89 94 92 90 87 86 84 87 86 85 85 83 81 81 78 82 93 93 97 98 98 95 94 90 87 86
72 74 76 81 83 85 87 90 92 95 96 96 100 96 95 91 95 94 93 100 96 94 93 91 89 94 96 95 93 90 87 85 85 82 91 98 101 102 102 101 99 95 90
79 81 85 87 87 89 92 96 96 99 102 101 104 105 101 100 99 99 99 96 102 95 94 98 99 96 99 103 102 101 97 93 90 89 89 94 104 108 107 106 103 104 101
88 91 93 96 99 100 104 106 109 110 110 109 108 105 106 100 102 101 100 103 99 96 92 92 96 99 99 104 107 109 108 105 102 99 95 95 97 108 110 113 108 109 108
98 100 105 107 111 114 117 116 117 112 111 108 107 107 106 107 101 102 99 101 104 94 92 92 91 97 99 103 108 112 114 113 111 108 105 101 99 98 110 113 116 115 112
108 110 113 119 121 121 123 124 117 111 107 106 104 104 105 105 104 100 97 99 100 99 89 90 87 88 94 102 110 113 115 119 119 116 114 110 106 105 104 105 111 117 120
117 121 123 125 126 129 126 119 107 103 100 96 97 97 97 96 95 95 93 93 93 91 89 88 87 88 90 96 103 111 118 119 121 123 122 120 116 112 109 107 107 111 116
125 126 130 131 130 123 113 105 100 96 94 90 90 89 91 91 91 90 89 88 87 87 86 87 87 88 89 93 98 106 115 119 120 122 125 127 125 121 117 113 112 111 113
129 132 132 130 123 110 104 99 94 93 94 92 90 89 88 90 91 93 89 87 85 84 81 84 87 87 87 90 89 94 103 110 114 119 121 125 128 129 126 122 120 118 116
132 131 126 115 108 103 99 97 94 90 86 82 80 79 77 78 81 84 84 85 84 81 78 83 85 86 89 89 89 92 93 95 102 109 117 120 121 125 128 129 128 126 123
124 116 109 105 102 100 99 94 88 82 77 75 73 71 69 67 69 72 75 77 79 78 75 78 82 86 90 91 92 91 92 91 95 98 102 106 114 119 122 126 130 132 131
111 108 104 102 100 96 90 84 78 75 72 69 66 64 62 60 60 61 64 67 70 72 71 72 80 84 87 91 95 95 93 91 91 92 93 95 99 107 112 119 124 128 130
106 103 100 95 91 86 81 78 73 68 64 60 57 54 53 53 53 54 56 59 61 64 66 67 74 81 83 88 92 96 96 93 90 89 88 88 90 91 100 110 115 116 122
102 97 89 84 80 77 74 70 65 61 59 57 54 52 49 49 48 49 51 53 55 58 60 62 68 76 81 83 86 93 94 94 91 90 88 85 83 85 89 98 103 108 113
94 87 81 75 71 67 66 63 62 58 56 54 50 48 46 47 46 47 48 49 51 53 55 55 59 68 74 73 77 83 86 89 89 88 87 85 82 80 83 90 96 99 102
83 79 74 70 66 63 61 58 57 55 51 46 43 42 41 41 43 44 45 47 47 47 49 50 55 60 63 64 67 74 77 80 81 82 81 82 76 76 79 82 87 92 96
75 72 68 65 62 58 54 52 52 50 47 43 40 39 39 40 39 39 40 41 42 43 44 49 53 56 59 60 62 65 68 72 74 75 76 76 76 75 74 76 81 87 92
70 67 65 61 57 54 51 49 47 46 45 40 37 36 38 39 36 35 36 36 35 36 40 43 45 47 49 51 55 58 63 63 66 67 68 68 68 69 70 74 79 84 89
67 64 60 55 50 49 47 45 43 42 39 34 33 36 36 33 31 32 33 32 32 34 36 38 41 43 45 46 49 53 55 57 59 61 64 61 62 62 63 67 73 78 84

GFSMA_250_spd_012.txt.gz
Wind_Speed
51 49 49 49 49 48 48 47 45 45 43 42 42 43 43 42 41 37 34 34 34 28 26 24 36 53 59 58 57 59 59 59 61 58 56 61 63 64 66 64 66 68 68
51 50 49 48 49 50 50 51 51 51 50 50 50 49 48 46 44 44 42 40 42 41 37 35 34 36 61 64 61 62 61 60 59 60 54 59 63 63 69 66 66 63 69
50 51 53 52 52 51 51 53 55 57 58 58 57 55 54 54 51 47 46 44 47 50 48 45 43 42 40 61 67 65 60 63 62 62 64 63 65 63 63 66 66 63 67
56 56 55 55 55 56 59 61 61 61 59 59 59 57 56 57 57 57 56 56 55 51 55 58 53 53 49 47 61 69 65 63 65 67 69 68 65 70 63 63 65 68 66
59 59 60 61 61 59 60 61 61 62 62 65 66 64 63 65 67 67 65 64 63 63 56 56 59 61 60 57 56 60 68 72 69 72 71 74 70 73 68 65 67 69 71
63 63 65 67 66 66 65 66 65 67 69 70 71 73 75 76 75 73 74 72 67 65 67 64 64 63 66 67 68 67 67 68 73 76 77 79 79 75 75 74 74 73 72
67 67 68 69 70 71 73 75 77 76 79 82 80 81 80 81 82 82 82 80 78 76 74 73 73 73 74 75 72 78 75 74 74 75 79 83 85 82 79 78 80 83 76
69 72 73 72 75 79 82 83 84 84 85 88 90 92 91 89 93 93 90 90 89 89 87 88 85 85 81 81 83 83 84 83 84 81 79 82 86 87 86 86 88 88 82
76 79 82 84 85 88 92 92 95 97 94 96 101 104 103 100 100 102 103 104 103 101 100 101 99 94 96 93 89 91 92 90 92 91 88 84 84 88 92 94 90 94 89
84 86 89 93 95 96 99 101 103 106 105 106 108 114 117 117 117 111 112 114 116 114 111 110 110 103 105 104 101 98 98 101 97 97 98 96 91 88 94 98 100 94 96
93 97 101 102 104 106 110 112 113 116 118 122 121 124 124 124 122 117 105 108 109 115 116 114 113 112 114 108 112 111 106 104 106 105 103 105 102 99 96 99 105 105 100
102 107 109 111 115 118 121 123 125 126 129 130 130 128 123 117 113 111 105 98 97 101 109 115 109 110 113 111 112 115 116 112 110 107 107 110 110 109 106 101 101 107 108
111 114 118 122 124 127 130 132 134 137 135 131 128 122 114 106 101 99 95 96 87 84 89 99 101 99 100 98 98 106 114 116 114 111 111 111 114 116 115 111 107 104 107
120 124 127 131 135 136 137 137 136 131 123 116 111 106 100 98 95 95 95 93 90 84 86 86 90 92 94 93 94 93 97 109 112 111 110 112 116 120 123 119 117 112 108
130 133 137 140 141 134 130 127 123 117 111 110 107 104 101 97 94 91 90 88 85 83 83 86 87 89 93 91 93 90 86 94 103 109 112 115 118 122 126 127 125 122 117
136 139 141 138 134 127 121 117 112 112 107 105 102 100 97 91 86 82 78 76 74 72 72 75 81 85 88 92 92 90 78 82 94 107 111 112 116 121 126 129 130 129 126
137 134 128 123 118 113 111 109 107 105 102 98 94 88 82 77 74 72 69 68 66 65 65 69 71 77 83 89 91 88 80 79 87 99 107 108 111 117 122 127 132 134 131
128 124 121 118 118 115 112 108 105 101 93 87 81 78 75 70 67 64 62 61 60 59 58 63 68 73 75 80 84 83 81 79 82 88 97 105 107 111 119 124 130 136 137
120 119 119 117 114 110 105 100 95 87 83 79 76 73 71 67 63 60 58 58 56 56 54 55 62 65 70 74 75 76 74 75 81 87 92 94 101 107 113 122 127 134 140
116 115 113 110 105 99 91 90 85 80 77 75 70 67 65 65 61 57 56 54 54 54 52 51 55 60 62 65 67 70 71 70 76 86 94 95 95 101 105 116 125 130 137
113 110 105 98 93 86 81 81 80 75 72 70 66 62 59 58 58 54 51 51 50 49 50 51 54 56 57 57 59 61 64 67 70 78 86 91 93 96 100 108 118 126 132
100 96 91 84 81 76 74 74 73 68 65 64 61 58 54 52 50 50 47 47 48 46 47 49 52 53 55 53 53 54 56 60 63 69 77 85 91 90 94 98 106 116 123
88 84 79 76 75 71 66 67 66 64 62 58 55 52 50 49 46 45 45 44 45 43 44 45 47 48 49 50 49 50 54 55 57 62 67 77 85 87 90 93 95 102 110
81 77 74 72 69 67 62 61 61 59 57 51 47 45 47 47 43 40 42 39 39 39 40 41 43 42 45 45 48 49 49 49 52 57 60 66 75 81 84 85 88 92 98
77 75 70 66 63 63 60 57 53 52 50 48 46 44 45 45 40 37 39 35 34 34 37 39 39 38 38 41 43 47 48 47 50 54 56 60 68 73 77 80 84 88 90
70 68 65 61 57 56 53 52 50 50 49 45 43 41 40 38 36 35 36 32 31 32 33 33 33 34 35 37 39 42 43 45 46 50 51 52 60 64 70 76 80 84 86

GFSMA_250_spd_015.txt.gz
Wind_Speed
54 52 52 52 49 49 51 52 52 52 51 47 44 45 45 44 44 43 41 42 41 41 35 35 31 32 40 46 48 52 54 56 59 65 59 64 68 68 76 84 83 64 73
55 54 51 49 51 53 54 54 53 52 51 49 50 50 51 50 48 47 47 44 45 46 46 40 40 39 37 47 51 55 55 60 59 64 61 56 57 60 66 70 66 66 67
53 52 53 55 55 56 57 57 55 54 52 52 52 51 49 50 50 53 52 50 48 45 49 50 47 47 47 44 54 61 63 60 63 67 62 64 65 65 64 67 68 63 64
59 59 58 58 61 61 59 61 59 58 58 59 56 53 53 54 56 57 56 56 54 57 55 54 54 52 54 54 54 55 69 72 71 68 67 68 64 67 66 64 67 68 65
60 61 63 66 65 64 62 63 65 67 66 65 64 63 64 63 63 63 64 64 64 64 64 65 62 62 61 58 62 61 61 66 79 80 77 76 73 71 69 67 64 65 65
65 68 68 68 68 65 66 70 71 72 72 73 73 74 74 75 75 74 74 73 73 74 72 72 69 72 70 68 64 69 70 71 68 77 82 84 80 79 76 72 68 65 65
66 70 72 73 71 73 77 79 79 79 81 84 84 83 82 84 84 84 86 82 80 78 78 81 80 76 75 76 75 75 73 79 78 76 77 84 82 85 83 76 73 73 75
72 71 73 76 78 79 83 86 87 88 90 95 95 95 92 91 92 92 90 93 92 92 90 89 88 86 86 83 82 83 83 81 86 84 82 79 83 87 88 84 83 77 76
79 82 84 85 86 88 91 93 97 100 102 105 109 108 104 100 99 100 102 101 102 101 101 103 102 100 97 94 93 91 89 91 87 90 90 89 87 86 92 93 91 88 82
88 92 94 96 98 101 104 108 112 114 115 114 115 117 118 116 113 107 107 110 111 112 111 112 112 113 114 110 110 106 103 103 101 95 96 98 95 93 92 97 96 94 94
95 99 101 104 108 112 116 122 124 125 124 124 123 122 125 124 121 110 102 112 116 119 119 120 120 118 117 118 116 116 114 113 109 110 106 101 104 103 100 98 100 101 97
104 108 110 113 118 122 126 130 129 127 125 123 125 122 119 113 110 108 98 93 95 103 103 102 101 103 104 109 114 114 120 116 117 118 118 114 108 111 110 107 103 103 105
111 114 119 126 131 133 135 135 131 127 121 117 113 110 105 101 96 95 94 87 85 86 89 93 90 89 92 94 102 108 113 112 119 124 124 122 119 115 117 115 112 108 107
118 124 131 134 134 136 134 129 125 119 112 108 107 103 97 95 91 89 86 83 82 81 85 90 91 90 90 90 89 97 101 105 112 119 131 124 118 118 118 121 120 117 114
127 133 138 138 134 128 124 120 116 112 108 107 103 98 93 90 86 84 82 79 75 75 77 86 88 90 90 91 93 93 98 100 105 110 116 129 133 121 122 123 125 124 121
131 136 137 132 126 120 117 111 109 107 105 103 95 90 87 83 79 76 72 69 66 61 63 73 77 81 87 88 91 93 95 98 100 100 103 115 131 128 122 124 123 125 128
137 136 133 126 120 114 110 107 104 101 95 89 86 81 78 74 72 69 65 63 61 57 55 66 67 72 78 81 84 91 93 95 100 92 95 101 116 123 123 121 126 126 127
127 124 123 118 115 111 107 102 97 92 87 81 78 74 70 67 66 63 61 58 58 57 52 59 63 65 69 73 75 81 88 91 95 95 92 97 105 110 113 117 127 130 129
114 114 113 111 108 103 98 93 89 84 79 75 73 70 67 63 62 60 57 55 53 54 53 55 60 60 63 66 69 74 80 84 86 88 85 90 100 106 108 109 118 127 132
110 105 100 96 91 87 83 81 81 78 74 71 69 67 63 59 57 56 54 54 52 51 52 53 58 59 59 61 63 66 69 74 76 76 77 81 92 100 101 105 112 117 126
106 97 90 85 82 78 75 75 75 71 70 68 66 63 62 59 55 52 51 52 49 46 48 50 54 55 56 58 59 58 60 64 65 68 70 74 82 93 102 103 108 113 119
98 89 84 78 78 75 72 71 71 68 65 64 62 60 58 56 53 48 45 46 44 42 42 44 47 49 51 52 54 55 55 55 56 60 65 71 76 88 100 105 104 109 112
89 84 80 77 76 73 68 64 65 64 61 59 57 53 51 49 47 44 41 40 38 36 38 37 39 41 42 43 45 50 52 53 54 56 60 68 73 81 92 100 104 105 107
84 82 78 74 70 68 65 62 59 57 56 53 52 50 50 48 43 40 40 39 36 35 37 35 35 35 38 37 41 43 45 48 53 55 55 61 67 77 85 91 97 101 103
79 77 72 68 65 62 60 58 55 54 53 49 46 44 43 41 39 37 37 35 34 33 34 33 32 33 36 36 38 40 42 45 49 52 52 57 62 68 75 83 90 96 100
74 71 67 63 60 58 56 55 52 49 47 44 42 40 38 36 35 34 32 31 31 30 30 30 30 30 33 34 37 39 40 43 45 49 45 52 58 63 69 76 83 88 92

GFSMA_250_spd_018.txt.gz
Wind_Speed
51 50 49 50 51 49 48 49 51 51 51 51 52 51 52 51 50 48 48 47 46 46 45 42 41 43 41 39 44 55 62 58 58 61 63 61 71 77 81 84 81 88 78
56 52 47 52 53 51 51 52 52 53 57 57 56 54 53 53 54 55 52 49 49 49 51 51 48 46 50 49 47 46 55 60 64 63 62 67 69 74 79 77 80 80 86
59 54 54 54 55 54 53 54 58 59 58 59 58 56 56 59 59 59 58 56 55 55 55 52 51 49 49 54 54 53 51 62 63 64 67 66 70 69 74 66 79 76 69
61 60 61 62 61 61 60 61 62 63 63 63 62 62 62 64 66 65 63 62 62 61 61 61 59 57 54 52 59 60 59 55 66 67 69 71 67 69 70 66 63 69 67
62 64 66 67 65 67 68 68 68 66 66 67 67 67 68 69 71 71 70 70 70 70 71 71 69 65 64 65 59 60 64 65 62 69 74 71 71 71 68 69 67 65 68
64 67 69 69 69 71 74 75 75 75 74 76 77 77 79 80 82 80 80 81 80 80 79 78 79 78 78 75 73 69 67 69 72 68 72 76 77 75 77 71 72 72 67
67 69 72 74 76 78 79 81 82 83 84 85 82 83 83 86 88 89 91 92 92 92 92 90 88 86 86 85 83 82 78 73 75 76 75 74 81 84 80 84 77 77 70
74 76 79 82 84 85 87 88 90 91 93 94 93 92 91 92 96 99 103 102 101 103 103 103 99 95 91 90 87 89 87 83 79 80 81 81 80 83 86 84 83 82 78
82 85 88 90 90 90 92 94 97 99 101 104 106 105 105 105 106 109 112 114 113 113 110 109 107 104 103 99 99 95 92 95 95 88 86 84 87 87 87 89 89 89 86
90 93 94 96 99 101 103 106 108 111 113 115 116 119 121 122 119 111 115 121 123 122 120 117 112 113 111 107 106 107 106 103 99 99 93 90 90 91 93 90 94 92 94
98 101 104 107 109 112 114 118 121 125 128 129 128 127 127 125 118 112 105 108 114 120 120 119 116 114 114 111 111 113 111 112 112 108 106 102 98 98 98 99 98 98 100
103 107 110 114 118 122 127 131 134 135 134 132 129 123 117 110 107 104 97 91 97 102 104 108 109 109 109 109 110 112 117 118 117 117 116 114 109 105 105 103 104 103 103
110 114 117 120 124 129 136 139 137 133 129 125 121 116 112 106 100 94 90 83 82 88 94 99 99 100 102 103 103 105 114 121 124 127 125 122 117 115 114 112 108 111 110
116 121 124 128 132 136 133 130 130 127 124 118 112 106 100 98 95 91 87 81 78 78 86 94 97 98 98 100 103 102 103 111 120 128 131 131 127 127 123 121 118 118 117
122 126 130 131 131 129 128 130 125 119 114 107 103 97 92 88 85 84 82 79 73 71 75 88 96 96 97 98 100 102 101 102 107 116 123 126 129 131 127 127 124 126 127
128 129 131 128 128 125 121 119 115 109 104 100 93 86 82 78 75 73 71 70 68 66 67 78 88 91 93 96 98 99 98 101 104 110 114 118 120 128 120 127 131 133 136
127 125 123 123 122 118 113 109 102 98 94 91 87 81 77 72 69 67 64 62 61 59 58 69 75 80 81 85 90 93 95 99 101 105 113 117 115 114 115 126 130 134 134
124 123 123 120 114 108 103 98 93 89 84 79 77 75 71 67 64 60 59 60 59 56 54 62 67 72 73 75 79 83 87 91 97 101 106 114 114 114 112 118 121 127 132
119 121 119 111 101 94 89 86 82 79 75 74 71 68 64 61 59 57 56 56 56 55 51 52 62 63 65 68 71 75 77 81 88 94 100 106 111 112 111 111 114 120 130
117 114 110 102 92 86 81 78 77 75 72 68 65 63 61 59 56 54 53 53 53 51 50 48 55 58 57 62 64 66 70 73 78 84 89 96 104 105 109 111 109 110 115
111 105 97 91 86 82 78 76 74 71 68 65 63 61 58 56 51 49 49 49 49 47 46 46 51 53 55 57 56 60 64 67 72 77 79 83 91 96 100 106 106 104 108
102 96 89 83 80 77 74 72 70 68 65 61 60 59 55 52 48 45 44 45 45 43 44 43 45 50 52 50 50 54 59 63 67 70 72 76 80 84 87 92 98 103 104
94 86 82 78 76 73 71 69 65 63 61 59 56 54 53 49 46 44 41 42 43 43 42 39 43 48 46 45 44 50 53 56 61 63 65 68 70 75 79 80 88 99 105
85 80 77 74 71 68 66 63 61 58 55 52 50 50 49 47 44 41 39 36 36 38 39 39 42 38 39 38 42 46 48 52 56 58 61 62 63 68 71 76 80 89 101
79 75 71 68 66 63 61 58 56 54 51 49 46 45 44 41 40 37 34 33 32 33 33 33 33 34 35 36 39 42 44 47 51 52 54 58 59 63 66 72 79 88 100
76 72 69 67 64 60 57 55 54 52 50 46 43 40 37 36 33 31 30 28 27 27 27 28 28 30 31 32 35 37 39 42 45 47 48 55 57 58 62 68 75 84 93

GFSMA_250_spd_021.txt.gz
Wind_Speed
57 57 56 61 62 60 56 54 53 54 55 55 55 55 55 56 57 56 56 53 52 51 48 46 46 47 44 41 37 41 51 61 64 63 68 70 78 88 93 76 77 81 73
61 62 61 57 58 59 58 57 56 58 58 58 59 60 60 62 63 62 59 56 55 52 52 52 50 47 49 51 50 49 48 52 67 66 64 63 75 70 74 76 69 64 71
64 60 63 62 62 62 61 61 62 62 62 63 64 65 66 67 67 66 64 61 59 57 55 57 55 54 52 50 51 54 57 56 53 60 68 65 69 69 75 69 71 70 72
68 69 70 69 69 63 63 64 65 65 65 66 68 71 71 71 70 67 67 68 70 67 66 64 62 61 60 59 56 54 52 61 62 59 62 67 74 76 75 75 74 72 74
69 71 71 73 72 70 70 70 70 70 70 71 73 75 77 77 77 76 76 76 75 74 75 74 72 69 68 67 66 65 62 59 65 68 66 66 73 76 80 76 74 79 77
70 73 75 74 72 73 74 77 78 80 79 79 79 79 82 85 86 85 85 85 85 84 84 83 82 80 79 76 76 75 72 71 67 69 76 72 73 78 78 80 78 76 81
75 75 73 75 74 77 79 80 81 84 88 89 88 87 86 87 90 91 93 94 95 95 95 95 92 89 88 87 87 85 83 80 79 75 73 79 77 75 79 82 81 81 75
75 77 77 78 79 82 86 89 89 90 92 95 96 96 94 96 99 101 100 102 103 105 105 105 105 102 99 96 96 96 94 93 90 87 84 80 83 81 79 79 83 82 79
81 81 83 86 88 90 93 96 98 100 102 105 106 106 106 104 104 109 114 115 117 117 118 118 114 112 110 110 108 106 107 103 100 99 95 90 86 86 85 82 81 83 87
83 87 89 92 97 102 103 107 111 114 115 116 118 119 118 120 120 115 119 124 126 125 124 125 126 124 123 124 123 119 114 115 112 106 106 103 95 90 90 89 87 86 88
89 93 100 103 107 109 113 116 119 120 120 123 124 123 123 123 122 117 108 113 118 125 126 123 122 118 119 122 126 126 125 123 122 119 113 111 110 102 95 94 93 91 89
96 100 105 109 113 117 119 123 125 126 125 124 123 122 121 117 115 112 103 94 99 102 109 114 115 112 110 110 113 119 122 126 128 127 123 119 115 113 107 100 100 98 94
100 104 109 113 117 123 127 128 128 126 125 123 120 120 116 110 104 101 96 89 84 89 94 100 102 104 102 106 109 111 112 113 119 123 126 124 122 120 117 112 105 106 103
106 111 116 121 124 128 128 127 126 124 125 123 119 116 106 102 96 92 88 83 78 79 83 90 93 97 98 100 103 105 107 109 112 117 123 127 128 125 127 122 117 111 110
113 117 122 125 128 129 128 123 122 123 120 117 109 106 99 92 87 83 78 75 71 71 73 80 87 92 94 96 97 101 103 103 106 110 115 121 126 127 131 128 125 120 116
119 123 128 128 126 123 121 121 120 118 111 106 98 94 89 83 79 76 73 69 66 63 63 70 80 85 86 87 90 95 99 101 104 107 110 114 119 124 130 132 132 128 124
125 126 129 126 121 118 117 116 112 105 99 94 89 82 78 75 74 72 70 67 65 61 60 65 72 79 80 79 80 84 90 95 101 105 108 111 114 117 125 132 135 135 132
127 127 122 119 115 115 111 106 100 95 89 83 78 75 72 70 68 66 64 63 62 61 57 59 65 73 73 73 73 74 79 84 91 99 105 107 110 114 118 123 131 136 137
122 120 114 111 109 106 102 96 91 84 79 77 73 70 68 66 65 63 60 58 57 57 54 54 60 66 68 70 67 70 72 75 79 87 94 102 105 109 114 116 122 130 135
115 112 109 104 101 96 92 87 83 79 75 72 69 67 65 62 60 59 56 53 52 52 52 51 56 59 61 64 63 64 67 69 74 77 83 90 96 101 107 109 116 121 124
111 106 104 98 93 88 83 79 77 74 72 70 68 65 62 60 56 53 52 52 51 51 50 48 50 54 58 59 59 57 60 64 68 73 76 80 86 91 99 106 109 115 118
110 106 98 91 86 80 76 75 73 70 69 67 65 62 59 55 52 49 48 46 46 49 50 46 45 48 52 54 53 52 57 61 65 68 71 75 78 80 88 97 104 109 112
106 99 91 85 79 75 72 72 71 67 63 61 59 58 59 56 51 49 46 41 41 43 46 43 42 43 46 48 47 50 54 58 62 63 68 71 74 77 79 84 90 102 108
101 91 84 79 75 70 68 67 65 61 58 56 55 54 53 50 45 43 39 37 36 36 38 39 36 37 41 42 41 44 48 54 57 57 64 68 68 71 73 76 81 90 96
93 85 79 75 70 66 65 62 61 60 57 52 49 47 46 44 41 38 36 34 32 30 31 31 31 33 38 39 40 41 43 47 50 48 57 62 62 65 66 70 76 79 84
87 80 75 70 66 63 61 60 58 55 53 51 47 44 43 40 38 34 32 30 28 26 26 26 26 29 31 35 37 37 41 41 42 43 48 56 53 59 62 64 68 71 74

GFSMA_250_spd_024.txt.gz
Wind_Speed
66 66 65 64 65 64 66 63 61 64 64 60 56 57 58 58 57 55 54 54 55 54 54 52 49 45 40 40 40 43 39 41 45 53 68 76 81 80 80 82 92 76 73
64 65 65 67 68 70 68 66 68 69 68 66 63 62 63 63 60 58 57 60 60 60 58 55 55 51 47 44 44 43 47 46 47 52 59 74 84 83 85 81 85 91 83
66 67 67 69 70 69 65 67 70 71 72 69 67 69 67 67 66 64 61 61 64 66 65 62 57 55 56 52 48 48 46 49 52 51 55 63 69 83 92 79 87 87 88
70 72 74 72 70 69 69 72 74 75 73 69 71 72 73 74 74 74 73 74 74 71 69 68 67 65 61 60 59 55 52 52 53 55 58 58 65 72 76 76 84 82 81
76 77 76 73 73 74 76 78 80 77 75 74 73 73 76 78 78 79 81 81 81 80 79 76 74 73 73 70 66 65 63 61 58 57 56 61 65 64 70 74 77 77 74
78 75 75 76 77 79 81 81 80 80 78 78 79 81 84 86 88 88 87 87 88 89 88 88 86 83 82 81 79 76 72 71 70 67 64 60 59 67 70 73 78 79 78
77 77 77 78 80 81 80 82 84 85 87 87 87 88 89 91 94 95 96 98 99 100 99 97 94 94 92 90 88 88 85 80 77 78 74 72 72 64 71 75 75 85 81
79 79 80 80 81 84 86 87 87 89 92 93 94 95 98 99 101 104 106 108 108 109 108 107 105 103 103 101 99 98 95 93 90 86 85 84 80 77 72 71 79 78 78
81 81 83 86 88 89 90 91 93 94 97 102 105 106 107 107 108 109 112 114 114 114 115 117 117 117 113 113 111 108 106 103 101 99 96 93 91 87 83 79 77 82 82
85 87 88 90 92 93 96 98 100 105 108 112 116 119 122 123 124 120 119 120 122 124 123 123 121 119 117 121 124 121 119 115 112 109 107 104 101 97 94 90 85 83 89
86 88 90 91 96 98 103 106 110 115 118 121 125 127 129 131 130 126 118 119 119 118 117 123 121 119 114 110 115 125 132 131 127 123 119 115 112 109 103 100 93 91 86
86 90 94 98 101 105 109 113 118 122 126 130 131 129 127 124 122 117 111 101 103 103 100 103 110 108 108 106 106 109 114 123 130 133 131 128 123 118 115 109 104 101 97
91 95 97 102 108 113 118 123 124 126 127 127 126 123 121 119 115 112 105 95 89 89 87 90 94 93 94 98 102 104 107 108 114 121 131 136 134 129 124 118 113 111 106
95 101 106 112 118 121 124 126 127 123 122 122 122 119 117 114 108 100 93 85 80 77 79 79 83 85 85 86 91 96 100 103 106 112 118 127 133 136 134 130 125 119 114
102 108 113 116 117 120 121 121 120 116 115 115 114 111 106 102 96 90 85 79 72 70 72 74 74 76 77 78 82 86 92 97 100 103 111 120 126 130 135 134 133 130 123
107 110 111 114 116 117 115 114 113 111 110 109 104 99 93 89 85 81 78 75 71 66 64 72 72 73 72 74 75 78 83 88 93 97 102 109 117 123 126 130 134 133 132
110 111 113 115 115 115 114 110 109 106 102 97 93 89 85 80 78 75 73 71 68 64 59 67 68 71 71 71 70 71 75 79 85 89 94 100 106 113 119 123 127 132 134
116 117 115 114 116 112 109 105 100 96 92 89 85 81 79 76 73 70 68 66 63 60 55 56 64 67 66 68 67 67 70 73 76 81 87 92 97 102 108 115 119 123 129
119 116 117 116 113 107 100 94 90 88 85 82 78 75 73 70 68 66 64 61 59 57 54 52 61 63 64 63 63 64 63 66 71 73 78 84 90 95 100 104 110 117 121
120 120 119 115 108 99 94 89 86 83 79 76 72 70 68 65 61 59 57 56 55 53 51 49 54 58 61 60 58 61 60 58 65 68 71 76 82 88 93 98 101 107 115
123 123 117 111 101 94 89 85 82 78 74 70 69 67 64 61 58 56 53 53 52 50 48 47 48 51 54 54 53 54 56 57 60 65 68 70 76 80 85 91 95 101 108
123 119 110 100 94 90 85 81 78 74 70 66 65 66 63 60 56 52 49 46 45 45 45 44 44 46 47 46 48 49 51 55 59 60 65 67 71 73 78 82 88 94 102
120 111 104 96 91 86 80 76 74 71 66 62 62 60 57 54 51 49 46 43 41 39 39 39 41 42 43 41 43 48 49 52 55 57 62 64 67 68 71 75 80 86 94
113 107 100 93 87 81 76 72 69 67 63 58 56 54 51 49 46 45 43 41 39 37 36 35 34 35 39 39 41 44 46 47 49 51 57 60 61 62 66 70 74 81 86
108 101 95 88 82 76 71 68 65 63 59 54 53 51 48 46 44 42 40 38 36 34 33 33 32 32 33 35 37 38 39 42 42 45 54 56 57 57 60 65 69 75 81
102 97 89 83 77 71 67 64 62 60 57 54 52 49 45 43 41 39 37 35 32 30 30 29 28 28 28 29 31 32 36 37 36 39 47 48 49 54 58 60 63 69 74

GFSMA_250_spd_027.txt.gz
Wind_Speed
68 64 66 64 65 63 63 64 66 68 70 70 66 63 61 60 60 58 54 53 53 51 49 49 48 46 45 44 42 39 36 38 40 37 55 80 82 79 83 83 80 70 71
66 63 63 67 67 68 69 70 74 74 72 71 69 68 66 65 64 62 59 59 57 56 55 54 52 52 51 49 49 46 44 40 43 46 45 56 87 89 87 88 85 84 78
71 72 73 74 74 74 77 79 77 75 73 71 72 73 73 72 68 66 65 63 61 61 60 59 59 59 59 58 55 53 51 50 45 49 53 53 61 75 84 97 90 82 87
72 79 80 80 81 81 83 81 78 77 76 75 75 75 74 73 72 71 69 69 69 68 68 68 68 67 67 66 63 61 59 58 56 51 53 62 60 66 68 80 96 94 89
83 85 85 85 88 86 86 84 81 77 77 78 78 78 79 80 80 79 78 77 77 77 77 76 75 75 74 72 71 69 66 66 64 62 59 58 66 66 67 73 80 86 96
90 90 89 90 87 86 84 81 81 82 82 81 83 85 87 85 84 84 84 84 84 84 84 84 84 84 83 81 80 79 77 73 73 72 70 66 66 68 72 70 74 78 82
91 90 88 88 85 82 83 84 86 87 88 88 87 87 88 89 89 91 90 91 91 93 95 95 95 94 92 91 91 91 90 87 82 81 81 78 74 74 72 76 75 76 79
86 86 85 85 86 87 88 89 90 90 90 90 90 91 92 95 96 99 101 103 105 107 108 109 108 107 105 103 103 100 99 99 97 94 89 89 86 82 80 79 77 79 80
81 83 85 85 86 88 89 90 90 91 93 95 97 101 102 104 106 109 113 117 119 120 122 124 124 121 121 118 117 116 114 111 108 106 104 99 96 94 89 87 84 79 80
79 81 83 85 86 88 90 91 93 97 102 106 109 113 116 118 121 118 121 124 124 127 129 128 128 127 123 119 120 125 128 127 124 119 115 112 108 103 100 96 93 91 85
79 81 82 84 86 89 92 97 103 106 109 112 115 118 122 125 126 127 124 126 123 124 124 123 121 117 111 109 107 107 112 119 128 127 127 124 121 115 110 107 103 98 95
77 78 80 85 91 95 100 106 109 113 115 118 118 119 118 118 119 122 118 112 112 116 110 106 106 105 102 100 99 101 104 106 108 116 124 127 130 127 121 117 113 108 103
77 82 86 92 98 102 107 108 110 112 114 111 111 113 116 119 120 117 112 106 101 102 101 94 90 88 89 88 89 92 98 103 106 107 112 121 125 132 130 126 122 118 113
81 87 92 98 102 107 107 110 109 107 107 109 109 109 112 113 111 106 97 89 85 84 85 83 81 79 79 78 80 83 89 94 99 105 109 113 119 125 132 133 130 126 123
90 96 99 103 109 109 110 110 107 107 107 105 105 106 103 101 98 93 88 81 75 72 74 76 73 70 70 70 72 74 80 85 90 95 100 105 113 120 125 129 134 134 128
97 102 107 111 112 110 110 114 113 106 102 99 97 94 92 90 88 83 78 74 70 65 63 71 73 68 64 65 67 66 70 76 80 86 91 96 103 112 121 126 129 135 135
103 109 110 112 111 113 116 114 106 100 96 93 89 87 85 80 78 75 72 69 65 63 57 67 68 70 66 61 62 63 66 71 74 76 82 88 93 101 110 120 125 130 137
109 110 112 114 113 116 115 108 101 95 91 86 83 80 77 76 73 70 68 66 63 60 55 57 65 65 66 63 60 60 63 65 70 72 75 79 85 92 100 109 118 125 130
111 116 115 116 118 117 111 103 95 90 85 81 79 76 73 71 69 67 65 62 59 56 53 50 59 58 60 59 58 57 59 62 64 68 70 74 78 84 90 98 108 116 125
117 116 117 119 119 114 105 95 90 84 80 78 75 72 70 66 65 64 62 59 56 54 52 49 53 53 54 54 53 54 55 56 58 63 67 70 74 77 83 88 97 105 115
116 117 120 119 117 108 97 91 85 81 78 76 72 69 67 63 62 58 55 54 52 50 48 45 46 48 49 51 49 50 51 50 54 60 63 66 69 72 76 81 87 95 106
120 120 118 115 107 98 91 86 81 78 75 72 68 66 64 60 57 55 51 48 47 47 45 44 41 42 42 45 45 44 45 48 52 56 59 61 65 69 72 75 80 87 95
119 117 113 107 98 92 86 81 78 75 72 68 63 62 61 56 55 54 51 48 45 43 41 40 39 39 39 39 37 37 39 43 48 53 57 58 60 64 67 69 73 78 86
116 112 107 100 93 87 83 78 75 72 69 64 60 59 57 55 53 51 48 44 41 38 37 35 36 35 34 34 34 33 35 39 43 47 51 52 54 57 61 63 69 73 80
111 107 101 95 88 83 79 75 73 69 65 61 58 55 55 53 48 46 44 41 38 36 35 33 32 32 31 30 29 30 31 34 36 39 45 45 50 52 57 59 64 69 73
106 103 96 90 85 79 76 72 70 65 62 60 57 54 51 47 43 41 39 37 34 33 31 30 29 29 28 27 26 26 27 29 32 35 39 41 47 51 54 54 59 64 67

GFSMA_250_spd_030.txt.gz
Wind_Speed
83 80 79 71 63 65 67 66 70 71 72 69 68 68 66 60 59 59 57 58 56 55 56 54 53 53 53 50 46 45 42 39 37 36 38 36 67 75 83 76 75 72 81
77 77 74 72 71 72 71 75 84 82 83 83 80 75 70 68 66 64 63 60 62 60 57 55 55 57 57 54 52 50 48 45 43 42 42 48 43 74 85 89 85 79 80
69 74 74 70 71 74 76 84 89 92 91 87 83 79 76 73 70 68 68 69 67 66 62 61 61 61 61 60 59 57 55 54 52 49 48 49 54 51 80 87 91 88 82
68 73 76 77 71 82 83 90 96 98 90 86 84 80 79 77 75 74 73 74 73 72 71 69 69 67 65 66 65 65 63 60 59 58 54 55 57 61 60 74 91 95 88
71 74 76 85 89 88 96 99 104 94 88 84 83 82 81 80 80 80 78 78 77 76 76 73 74 74 72 74 74 74 73 71 68 66 63 62 62 65 68 67 73 93 93
78 81 88 92 94 98 103 100 90 86 85 83 85 84 83 83 82 81 80 81 80 80 81 82 80 81 80 80 81 81 80 80 77 75 72 70 69 69 72 74 75 79 94
82 87 92 95 96 88 87 89 88 87 86 86 85 84 84 82 81 83 87 87 89 89 91 92 92 91 91 90 91 89 90 88 86 84 82 80 77 75 76 77 81 81 84
88 88 87 87 88 88 87 86 86 87 85 82 81 85 87 91 94 94 97 103 102 102 104 104 103 103 103 101 101 100 101 99 99 96 93 91 88 85 82 81 83 86 86
80 81 83 85 86 88 87 85 82 82 85 90 91 95 99 103 107 110 111 112 114 117 119 120 118 119 118 117 116 116 114 114 112 107 105 102 98 96 93 89 87 88 91
80 81 82 83 82 81 80 81 86 90 94 97 100 104 107 110 113 112 116 118 117 121 126 126 121 120 116 115 120 126 127 130 127 123 118 114 111 107 104 100 96 93 93
74 72 71 71 74 79 84 86 92 96 101 105 110 112 114 114 112 112 109 112 114 121 120 120 117 111 109 105 103 107 106 115 120 128 130 127 123 119 115 111 108 104 100
66 68 73 77 81 85 89 95 98 105 107 109 112 114 113 110 112 113 115 117 116 119 116 113 111 110 107 101 100 99 100 103 108 113 122 128 127 128 127 123 119 114 110
69 74 79 83 87 91 96 100 105 108 108 110 110 110 108 107 106 108 109 108 105 106 104 98 93 88 87 85 86 85 89 93 98 102 105 115 120 122 127 131 130 124 120
76 81 86 89 93 99 102 105 106 108 107 109 109 104 103 101 101 101 100 96 92 93 93 90 85 78 75 73 75 77 79 83 89 97 103 105 111 118 119 124 129 131 129
81 86 90 94 99 104 106 108 107 109 111 110 106 103 100 99 97 95 91 87 82 77 79 81 76 72 69 65 67 70 73 77 81 88 96 104 108 112 117 118 121 127 132
86 92 97 101 106 109 110 109 109 112 110 107 103 100 97 94 92 87 82 78 73 69 65 75 72 68 65 61 60 64 68 72 75 81 86 93 103 109 114 118 120 122 126
94 99 102 106 105 107 110 111 113 111 108 105 101 96 93 88 84 80 76 70 67 63 58 69 66 67 65 61 57 56 62 66 70 74 79 84 91 98 106 115 120 121 124
100 103 105 104 104 104 108 109 111 108 104 100 95 90 85 81 77 72 68 64 61 60 55 58 64 62 62 62 58 55 55 61 65 68 71 78 84 89 96 102 112 121 123
105 109 107 107 106 110 110 111 108 104 99 92 86 82 77 73 71 67 63 61 58 57 54 51 59 55 56 58 58 58 56 53 59 64 66 75 76 81 86 92 100 110 121
109 109 107 108 110 112 111 107 103 97 89 84 80 75 72 69 67 64 61 59 56 54 53 50 53 50 49 50 52 54 55 54 53 59 63 68 72 77 80 84 90 97 107
108 107 109 110 111 110 107 103 95 88 84 79 75 72 69 67 63 61 57 56 55 54 52 50 48 45 43 44 45 48 50 50 50 53 58 63 68 71 75 80 83 87 95
108 107 109 110 108 105 103 95 87 83 79 74 72 70 65 63 60 59 55 54 53 51 49 47 45 44 41 41 41 42 43 44 45 48 53 58 61 67 70 75 77 83 88
108 109 110 108 105 101 93 88 83 79 73 72 70 66 63 59 58 56 56 53 49 46 43 42 42 40 38 36 37 37 39 40 41 43 50 55 57 62 66 70 75 79 83
110 110 110 106 101 95 89 84 80 75 71 70 67 63 59 57 55 55 53 49 45 41 39 38 37 35 34 33 32 31 34 36 38 40 48 53 54 54 59 65 70 74 79
114 109 107 102 97 91 85 81 77 73 71 66 62 59 56 54 54 52 48 44 40 38 37 36 34 32 30 29 28 28 29 33 36 39 45 47 49 47 53 60 65 70 75
112 108 103 99 93 87 83 78 74 71 68 63 58 55 53 52 49 45 43 40 37 36 35 33 32 28 26 24 23 24 26 29 32 35 39 43 44 46 51 55 60 65 69

GFSMA_250_spd_033.txt.gz
Wind_Speed
84 85 83 79 77 74 70 67 68 70 59 67 70 76 83 79 84 77 66 62 60 54 53 54 55 57 56 54 52 51 51 49 48 47 44 42 37 54 75 74 74 71 69
83 81 79 76 73 72 69 71 77 77 74 79 78 83 89 89 92 89 75 65 65 64 59 58 59 59 59 60 58 56 55 54 53 52 50 48 48 51 82 78 84 73 71
70 71 69 69 68 61 66 66 81 76 79 86 91 92 95 99 95 85 79 73 68 68 68 67 67 64 62 62 62 61 59 59 59 57 56 54 51 50 62 86 84 88 79
66 65 66 70 75 70 78 80 82 83 88 91 97 102 99 90 84 82 77 74 75 72 68 69 70 73 70 70 68 67 67 65 65 64 63 61 58 58 61 77 88 88 87
62 67 70 75 80 82 84 87 89 94 95 97 92 92 89 86 82 81 80 74 74 73 72 73 69 72 74 73 75 76 74 72 73 71 69 67 68 65 62 68 91 95 90
71 76 79 83 84 86 90 91 95 102 101 95 91 90 90 88 83 79 79 77 79 80 79 80 81 80 78 77 78 80 79 80 78 77 78 75 74 73 71 69 74 89 98
77 81 86 89 92 95 96 97 94 91 92 92 89 84 80 82 82 80 83 87 89 90 91 91 93 93 95 94 93 91 88 86 86 86 87 86 84 82 79 77 74 79 95
75 77 79 85 92 93 87 88 91 89 84 80 79 79 81 85 91 96 98 100 101 102 106 108 109 108 107 107 110 109 103 100 99 97 96 95 95 93 89 86 83 82 86
75 79 82 85 87 88 88 86 80 77 80 84 87 91 93 96 98 105 109 112 112 114 116 117 119 120 121 121 118 116 119 119 114 111 108 105 104 102 100 97 93 89 89
78 80 80 81 80 77 74 75 80 82 86 89 94 101 104 107 109 108 111 116 117 116 116 116 116 117 117 118 117 117 110 113 121 125 119 115 112 111 109 106 103 99 94
69 71 71 70 69 70 75 81 86 91 97 101 103 105 110 112 113 113 107 107 109 113 116 115 115 114 115 114 112 113 104 109 105 115 123 121 122 117 115 113 111 108 104
69 67 66 68 73 77 81 87 94 99 103 107 109 109 108 109 108 108 108 106 105 106 108 110 112 110 108 105 100 97 93 97 105 106 105 114 119 123 124 119 116 114 112
68 68 70 72 77 82 91 96 100 104 108 111 109 107 107 107 109 108 104 100 99 99 101 102 100 95 92 89 88 86 83 83 87 94 98 101 109 117 120 125 125 120 117
70 70 74 79 84 92 98 104 105 108 109 108 105 108 109 106 102 99 98 97 92 90 91 90 88 84 79 78 77 76 77 76 79 84 89 97 102 108 117 119 125 128 127
73 74 79 84 92 98 104 107 107 109 110 108 106 108 107 104 101 99 95 92 88 83 84 85 81 76 73 72 71 70 73 73 73 77 83 89 96 102 109 116 120 123 128
78 81 86 93 99 102 107 108 105 106 108 109 109 110 108 103 99 96 92 89 85 77 67 78 75 69 68 66 64 63 65 70 72 73 76 82 89 96 103 112 119 122 124
82 87 93 99 103 107 106 104 103 106 108 107 108 106 103 99 96 91 86 81 76 71 62 69 67 64 62 62 59 59 59 63 69 72 73 74 80 87 96 103 113 121 123
90 94 100 104 107 108 105 106 110 108 107 105 102 100 97 93 88 83 78 74 71 67 62 57 66 59 57 56 56 57 57 57 64 70 72 71 76 82 89 96 103 114 121
96 101 104 109 109 107 108 109 108 106 103 100 97 95 90 85 81 75 73 70 65 62 60 55 60 58 54 52 52 53 53 54 55 63 66 69 73 76 80 87 94 102 113
102 106 109 109 106 107 109 109 106 102 100 96 93 87 82 77 73 71 67 64 62 59 58 54 54 54 53 51 50 51 50 51 52 53 57 64 71 72 77 81 87 94 102
108 111 112 108 108 107 109 106 104 102 97 92 86 80 75 71 70 66 63 60 58 57 55 54 53 51 49 45 46 46 47 48 49 49 50 57 64 67 73 77 81 84 92
113 112 109 108 109 107 109 101 100 96 91 85 79 75 71 67 66 62 60 57 54 54 53 50 48 44 43 40 41 41 42 43 44 43 46 51 58 64 68 74 74 79 85
112 109 108 109 111 106 102 99 93 90 86 77 73 71 68 64 62 58 55 53 52 49 47 45 43 39 39 37 36 35 37 40 40 40 42 48 52 59 62 66 72 78 82
109 108 109 111 110 102 104 97 91 88 79 72 70 68 64 62 59 56 52 50 47 45 43 41 40 38 36 34 33 32 34 36 38 39 40 45 49 55 57 61 68 73 76
108 111 114 110 107 102 101 95 90 82 74 69 67 65 62 59 55 52 50 47 44 41 40 39 37 35 33 32 31 31 31 32 35 36 38 41 44 50 54 57 64 69 73
112 112 112 108 106 104 100 93 84 77 71 67 64 61 60 55 52 49 45 42 42 39 38 36 35 33 31 29 26 27 27 28 30 33 36 38 40 44 48 52 57 60 67

GFSMA_250_spd_036.txt.gz
Wind_Speed
84 88 90 95 94 90 87 89 90 79 71 67 65 67 70 79 76 87 78 79 80 81 72 58 56 53 52 52 54 53 54 52 49 49 53 52 49 51 74 79 72 68 66
87 91 93 93 92 93 91 81 75 71 71 70 68 72 82 85 79 80 86 85 86 84 72 68 63 61 58 57 56 58 59 58 57 54 54 57 56 54 61 70 87 79 70
93 93 94 93 89 82 79 74 67 68 73 78 81 84 82 86 90 92 95 92 82 83 76 67 67 66 63 63 61 62 64 63 62 60 59 60 60 61 59 61 88 86 80
88 84 82 80 80 75 75 70 78 82 83 84 89 92 92 95 98 91 86 87 80 74 74 71 68 69 71 67 68 69 69 66 68 69 64 65 66 66 66 65 67 95 91
77 75 75 76 77 75 77 80 84 88 93 97 95 94 95 98 94 91 83 80 78 74 73 73 70 68 70 72 73 73 75 72 74 75 72 69 73 73 73 70 72 75 104
67 69 71 73 74 78 81 85 87 89 90 88 90 87 85 84 82 79 75 76 80 80 81 82 82 82 82 82 82 81 80 81 82 81 81 82 78 78 77 79 78 79 87
62 65 68 71 77 79 80 84 85 86 86 83 78 73 71 71 78 82 86 89 91 92 94 97 98 96 95 96 96 98 97 91 90 90 91 90 90 88 85 83 84 85 82
67 70 73 73 74 77 78 77 76 75 75 73 70 71 75 80 85 91 97 101 104 107 108 109 110 111 111 111 112 114 108 107 107 103 99 96 97 98 96 93 91 91 91
65 66 67 69 70 71 73 73 71 69 69 72 77 79 81 87 93 99 104 109 113 116 118 119 119 120 118 117 118 118 114 110 111 114 114 110 107 102 103 101 101 98 99
65 67 68 70 71 73 74 74 75 75 77 77 81 88 94 99 103 104 110 114 116 117 119 117 112 111 110 108 108 108 106 105 104 108 118 123 115 112 108 107 108 108 105
64 67 69 71 72 74 76 76 75 77 81 85 90 97 105 109 112 112 108 108 109 113 113 110 109 110 109 108 106 105 104 102 103 105 108 108 115 118 115 113 111 114 114
67 66 69 71 73 75 75 77 79 83 89 96 102 106 109 111 109 107 107 107 102 107 107 106 105 103 103 102 100 100 98 94 93 93 95 101 102 110 118 119 121 118 118
73 72 74 75 75 75 78 82 88 92 98 105 110 112 111 107 105 105 107 104 99 98 96 97 96 94 91 88 86 86 85 86 85 84 84 88 91 96 106 113 121 124 121
78 76 77 77 78 82 88 93 98 103 106 109 109 108 107 108 108 108 103 98 94 89 91 90 90 87 80 77 75 74 74 75 74 76 79 83 84 88 95 102 111 122 127
80 79 79 80 84 90 95 101 104 107 108 109 108 105 107 110 111 107 101 97 93 85 84 86 85 82 75 74 70 69 70 70 69 68 71 75 81 83 89 96 104 113 126
82 83 84 87 91 98 102 106 109 108 109 105 105 106 108 107 103 104 99 95 92 86 77 80 82 76 72 71 69 67 67 67 67 66 67 69 73 78 85 93 99 109 118
85 86 89 93 99 104 108 110 109 107 107 106 108 106 102 100 100 98 96 94 88 83 75 72 76 72 68 66 64 64 63 62 63 64 66 66 67 72 78 87 96 103 115
88 91 94 99 104 107 109 109 109 106 107 107 107 103 101 98 97 95 92 86 81 78 72 66 71 67 63 60 58 59 60 59 59 62 63 65 64 69 73 80 89 97 106
93 96 101 105 107 109 110 110 107 108 107 107 103 99 97 94 92 90 85 79 74 71 68 62 61 61 59 56 54 54 56 55 55 57 60 61 64 66 71 74 81 90 99
98 102 105 107 110 110 111 109 109 109 107 105 101 97 94 90 87 84 77 73 68 66 63 59 57 57 55 53 51 53 52 51 54 54 57 57 59 65 69 72 77 83 91
104 106 108 110 110 109 109 109 111 110 106 103 101 97 91 84 82 76 71 67 63 60 59 57 55 54 51 49 47 46 46 46 46 47 51 56 54 59 67 69 72 77 83
108 108 110 111 109 109 110 111 110 108 106 100 95 92 86 79 75 69 68 65 59 56 57 54 52 48 45 43 43 41 40 40 43 40 45 50 51 53 62 65 69 73 77
110 111 109 107 109 111 116 110 107 106 102 97 93 86 80 72 70 66 61 59 57 56 55 53 47 42 40 38 38 36 37 38 39 38 41 44 47 51 55 61 65 70 76
112 112 111 112 113 115 113 112 105 99 98 93 86 80 74 67 66 62 59 56 54 54 52 48 44 42 39 38 35 34 35 34 36 36 39 39 44 46 51 56 62 66 70
111 110 110 111 113 111 107 103 101 99 93 86 79 73 68 63 61 59 56 55 54 52 47 45 42 40 36 35 34 31 33 33 32 34 35 37 40 43 49 52 56 59 63
111 111 112 113 111 106 107 103 96 92 87 80 73 67 66 61 58 55 53 52 51 47 44 41 38 37 34 33 31 30 30 30 30 31 32 34 36 39 44 46 49 51 56

GFSMA_250_spd_039.txt.gz
Wind_Speed
79 86 87 87 87 88 86 87 92 96 98 92 91 87 79 75 72 72 71 73 76 76 78 77 76 78 77 65 56 55 54 51 55 56 56 52 56 54 53 69 68 68 68
84 90 92 87 91 92 95 95 91 86 88 86 80 76 76 77 77 83 80 79 87 89 91 88 86 80 74 75 71 67 60 56 56 59 61 59 57 60 61 58 74 76 73
91 92 97 98 96 92 93 94 86 84 79 77 76 75 77 81 83 83 86 88 83 86 84 78 76 73 70 67 64 66 68 59 58 64 66 67 64 63 69 68 66 78 80
98 94 90 89 92 88 91 87 84 80 77 77 82 85 87 88 90 87 88 89 86 78 74 69 70 72 70 67 67 64 65 68 66 65 72 73 73 72 70 75 71 69 88
87 90 91 85 83 78 77 76 78 80 81 81 82 83 85 85 83 80 79 75 71 71 71 73 74 75 78 79 79 78 74 72 69 73 73 77 80 81 79 77 80 79 82
86 87 79 73 73 74 75 75 76 76 76 76 76 76 76 75 72 70 72 72 74 77 81 83 84 85 85 87 88 89 93 90 82 82 79 80 84 87 87 87 83 86 83
72 70 69 71 72 72 72 72 72 72 74 78 77 77 77 77 76 76 78 81 85 87 91 93 96 98 99 100 101 102 102 102 103 98 92 90 85 90 94 95 94 89 94
62 59 59 59 63 67 69 71 72 74 78 81 79 77 74 75 77 81 84 88 94 98 102 105 108 111 114 115 114 112 112 110 108 107 106 102 99 95 94 100 102 101 96
50 55 60 64 66 70 74 75 75 76 77 77 76 74 74 74 77 84 91 97 106 110 115 117 118 120 121 118 114 107 106 101 100 103 106 109 109 106 102 98 104 105 107
52 58 65 70 74 77 79 77 77 78 77 76 77 78 83 87 91 93 97 102 107 113 117 117 119 120 117 112 107 103 99 94 94 96 98 102 107 111 110 107 104 105 109
63 68 72 74 78 82 83 80 80 78 77 80 84 88 92 98 102 103 101 101 102 105 108 111 113 114 111 107 106 102 96 94 94 94 94 97 99 101 106 111 111 109 108
66 72 75 78 82 86 83 79 80 81 84 88 93 97 102 105 105 103 100 97 95 99 105 110 113 110 103 97 94 92 89 86 84 85 87 90 95 97 100 104 110 114 113
73 78 80 84 89 89 83 82 85 90 94 97 102 106 109 107 104 103 103 102 101 101 103 107 106 102 94 89 85 83 80 79 79 79 81 85 87 89 92 97 106 111 116
80 83 86 91 94 89 86 89 92 97 101 106 109 109 107 106 107 107 110 109 105 98 93 94 97 93 89 82 74 71 68 68 68 70 73 77 82 84 87 89 95 104 114
84 86 91 96 95 90 90 93 98 104 108 110 110 108 107 107 108 109 110 106 101 94 89 92 93 90 83 73 67 65 63 63 62 62 66 69 73 79 82 85 89 96 106
87 90 95 97 94 92 94 98 105 108 111 110 109 109 108 110 109 111 109 103 100 94 90 87 86 81 74 70 67 65 63 62 62 61 62 64 67 71 77 80 85 91 99
92 93 99 100 96 95 100 104 110 113 112 109 108 108 108 110 109 108 106 100 98 93 86 82 78 73 69 66 66 65 63 60 59 58 59 60 63 67 70 75 81 86 95
93 99 101 98 96 99 105 110 112 111 107 108 108 109 108 107 105 105 103 99 92 87 80 74 73 70 66 64 62 61 58 57 56 57 56 58 60 63 68 71 76 83 89
97 101 100 99 99 104 110 113 112 108 107 107 108 108 107 104 100 98 96 89 84 80 75 71 68 65 63 60 58 55 54 54 54 54 55 56 58 62 64 67 72 78 84
102 101 100 101 106 111 113 113 111 107 108 108 109 109 106 101 94 90 87 82 77 74 70 68 64 62 59 55 51 51 51 50 51 50 54 55 57 58 62 64 68 73 78
101 101 104 110 113 112 114 110 108 107 108 106 107 107 103 97 89 85 81 77 73 68 66 64 62 58 55 53 50 47 47 48 43 44 52 54 53 58 60 62 65 69 72
103 107 112 116 113 109 108 108 109 109 108 104 102 102 95 91 86 81 77 72 68 65 64 60 57 54 52 50 47 44 45 43 43 41 48 47 48 54 56 60 63 65 67
109 114 117 117 116 113 110 110 109 107 103 102 97 94 89 86 81 76 71 65 63 62 59 57 56 52 51 46 43 41 41 41 41 39 44 43 46 47 50 54 58 62 64
117 118 115 113 110 109 111 111 111 109 104 101 94 87 84 81 76 71 67 63 60 58 55 51 51 50 47 45 43 40 38 37 39 38 40 35 43 44 45 49 53 58 62
118 117 114 111 112 111 111 112 108 103 98 95 89 84 79 74 70 66 63 62 59 55 51 49 48 48 44 42 40 37 37 38 35 36 37 36 39 40 41 44 48 53 58
118 117 112 111 111 108 105 103 101 95 90 88 81 76 73 68 65 62 60 59 55 52 49 46 45 44 41 39 37 36 35 35 33 32 34 33 35 36 38 40 43 47 51

GFSMA_250_spd_042.txt.gz
Wind_Speed
76 77 82 89 89 92 95 95 98 96 100 97 95 95 92 87 85 78 77 77 77 77 76 75 75 77 80 79 80 76 73 73 68 59 51 53 56 54 57 58 58 58 64
81 83 89 92 95 98 99 93 89 87 87 89 90 84 82 83 83 84 84 83 81 80 79 79 79 78 78 78 79 79 79 77 73 68 65 57 59 60 63 61 65 61 71
82 82 83 88 93 91 87 90 94 92 88 92 86 84 85 85 85 84 83 82 80 78 76 76 74 73 73 73 73 71 70 69 68 65 63 63 62 67 67 66 65 67 75
89 93 82 84 84 87 92 91 89 83 82 82 81 80 81 80 80 82 83 80 78 77 75 72 71 70 72 75 75 74 72 67 64 61 62 60 64 67 73 76 73 75 79
79 82 86 83 85 82 75 73 75 73 70 70 71 75 79 80 80 81 80 79 77 76 75 74 74 75 76 77 79 80 82 84 79 71 67 66 63 67 76 77 80 79 80
87 86 82 82 80 69 64 67 66 69 71 73 75 79 79 80 79 78 78 77 75 75 75 76 78 81 83 85 87 89 90 91 92 92 87 79 75 75 73 82 85 86 88
81 78 79 72 66 63 62 64 66 70 73 76 82 83 79 78 78 77 76 77 81 84 86 87 89 92 94 96 98 100 100 102 102 101 100 98 94 86 85 79 88 92 94
78 75 68 63 62 61 65 69 72 73 78 82 87 84 77 76 75 79 83 87 91 95 97 100 103 105 106 106 106 108 110 111 112 113 112 108 104 102 97 94 88 94 99
65 61 58 61 63 66 71 74 76 77 81 86 88 83 76 76 79 84 89 94 98 105 108 108 108 108 107 107 108 108 108 108 109 109 108 107 103 99 104 103 100 97 98
59 61 61 63 66 71 76 80 81 83 86 89 91 86 84 84 86 87 94 99 102 104 105 105 106 107 108 110 109 106 105 103 100 99 95 93 91 92 95 102 106 103 103
62 62 65 67 72 77 81 83 85 89 92 95 97 91 89 90 94 97 99 104 104 101 101 102 104 106 110 108 104 105 102 101 97 96 94 89 89 93 94 94 100 106 106
65 68 71 74 76 81 85 87 89 92 95 99 95 91 91 94 100 105 107 104 102 102 102 105 109 110 110 104 99 95 92 88 83 81 80 80 80 83 86 89 93 103 111
70 74 75 77 80 84 85 88 92 94 99 97 94 94 97 103 109 111 109 105 105 105 108 109 109 109 105 97 90 86 81 81 80 75 76 76 77 79 80 83 87 97 107
70 73 75 80 83 83 89 92 95 100 100 96 98 101 106 111 111 111 108 108 109 108 108 106 104 103 99 91 82 78 77 73 69 67 67 69 72 75 77 81 85 92 103
72 73 76 79 84 89 92 97 103 101 99 99 104 109 113 113 111 108 109 110 112 110 104 102 99 93 90 86 79 73 68 64 60 59 60 63 67 70 73 76 81 87 96
70 74 80 85 90 93 97 103 103 102 103 106 111 115 112 110 108 109 109 110 110 109 103 98 94 89 84 80 73 66 63 59 55 55 56 57 59 64 69 73 78 83 89
79 84 88 92 96 98 103 105 103 105 110 114 112 111 107 105 107 108 108 108 106 104 102 93 90 83 78 72 67 63 60 57 54 52 52 54 55 59 65 69 74 80 86
85 90 93 97 101 104 105 104 107 112 114 112 108 106 105 105 105 106 106 102 99 96 93 87 82 76 71 65 63 61 58 55 54 52 52 53 53 56 62 66 70 75 81
90 92 96 102 104 103 104 109 113 112 109 109 108 107 108 108 107 106 103 98 96 90 87 81 75 71 67 62 62 58 56 54 52 51 52 53 53 56 58 62 65 71 77
93 97 103 102 101 105 110 113 113 109 109 107 106 107 107 106 104 100 99 94 90 85 79 75 70 67 64 61 58 57 55 52 48 47 52 52 50 52 54 58 62 66 71
100 103 100 101 107 112 113 113 110 109 109 109 110 110 109 106 103 100 96 89 83 76 73 69 67 63 62 58 56 53 50 52 46 45 49 43 47 49 50 54 57 62 67
100 99 103 110 113 113 112 111 111 111 112 112 111 110 106 102 98 91 84 80 76 70 69 67 62 60 58 55 52 48 48 45 43 40 46 39 45 44 45 49 53 58 62
101 106 112 113 114 112 111 110 112 113 113 110 108 105 101 97 90 84 79 76 71 67 64 64 62 58 55 53 50 47 43 38 38 41 40 38 43 42 43 44 49 53 57
110 113 116 114 113 112 112 113 113 112 109 106 102 97 92 86 82 78 74 71 67 63 60 56 57 56 52 50 47 45 43 37 35 37 40 32 39 39 41 43 44 47 51
117 119 117 115 112 111 112 112 109 105 101 96 92 87 83 79 75 74 69 67 63 59 56 54 53 51 48 45 44 43 39 38 34 35 37 34 34 35 38 39 40 43 47
120 119 115 112 111 112 112 109 103 99 92 87 85 81 78 73 70 68 66 63 61 57 53 51 50 47 45 42 40 40 38 37 36 32 34 32 32 32 33 36 38 40 43

GFSMA_250_spd_045.txt.gz
Wind_Speed
58 70 67 70 73 74 82 83 89 94 94 98 89 89 87 90 84 81 77 76 77 79 78 76 74 71 70 68 68 66 65 68 70 74 74 69 65 61 57 56 56 53 54
70 72 78 88 83 86 89 90 95 93 90 85 87 81 79 73 70 73 74 75 77 78 77 75 74 75 73 70 68 68 66 65 64 66 66 66 64 63 62 56 59 57 56
73 78 79 79 85 88 88 88 89 83 80 81 77 74 72 69 70 71 71 77 79 78 74 71 72 72 71 71 70 71 69 67 67 64 63 63 63 61 59 62 60 62 60
78 78 79 82 83 88 85 86 81 77 84 78 75 74 70 70 72 75 78 79 81 76 70 66 67 67 68 69 72 73 74 74 72 70 68 67 64 63 62 59 63 65 68
75 79 81 85 87 83 80 80 83 79 79 73 70 71 74 77 79 80 81 82 81 77 71 69 70 70 71 74 76 78 81 82 82 82 81 78 73 69 69 66 61 65 72
78 78 80 79 82 84 83 81 79 76 71 72 72 75 79 82 85 86 86 87 87 85 79 78 78 79 81 83 84 87 88 90 91 91 92 91 88 85 79 77 72 67 73
74 75 76 80 84 83 75 76 74 73 74 75 77 81 85 88 89 90 93 94 95 91 85 83 85 88 90 92 95 97 98 98 96 97 99 100 101 98 94 90 84 79 71
76 78 75 72 73 72 74 71 73 77 79 80 83 86 90 88 90 93 96 100 100 94 89 88 90 94 98 102 104 103 99 95 95 97 100 102 103 105 104 100 98 90 84
69 69 68 71 70 72 75 77 78 80 82 85 88 90 89 89 92 95 101 103 98 95 95 99 104 108 111 109 107 104 100 98 98 97 98 99 97 95 95 97 99 105 97
65 67 69 71 73 79 81 81 83 85 87 87 88 90 92 95 95 97 103 99 97 99 103 108 112 113 111 109 107 106 104 103 99 94 94 94 94 93 90 91 93 98 107
65 68 72 75 79 81 80 80 81 80 80 82 85 91 94 97 100 103 97 97 100 106 112 113 112 110 108 107 107 107 105 101 95 90 89 89 88 86 89 92 91 89 95
68 71 74 75 74 75 76 79 78 79 82 86 90 94 98 101 104 102 100 103 108 110 109 110 109 109 109 109 110 107 103 95 85 83 81 80 79 80 79 78 80 86 89
69 70 70 71 74 73 73 74 79 84 87 90 95 100 103 104 102 104 109 110 109 106 106 108 109 110 110 111 110 106 98 91 82 77 73 71 71 73 72 72 74 78 84
66 71 73 71 72 75 79 84 88 90 93 96 102 103 100 103 108 113 115 113 109 106 108 107 108 111 112 108 104 98 92 87 78 72 67 64 64 65 69 71 73 76 81
72 71 72 74 75 79 83 88 91 95 99 102 100 101 106 112 115 116 113 110 108 106 106 109 109 109 104 99 97 93 85 79 73 67 63 59 59 60 65 68 70 75 81
71 72 76 78 81 84 88 92 98 101 100 100 104 110 113 114 112 112 111 110 111 110 108 107 105 102 97 92 89 85 78 71 67 62 55 55 55 57 59 63 67 72 79
74 76 79 82 86 88 93 100 102 101 103 108 111 112 110 111 111 111 113 114 114 111 106 103 97 95 90 83 80 77 69 66 61 56 53 52 53 54 58 61 65 69 74
78 83 85 87 89 95 101 102 101 106 110 111 109 109 109 110 111 114 115 115 112 106 100 95 89 84 81 76 73 70 64 59 55 53 52 52 51 51 54 58 60 64 70
83 87 87 90 95 101 101 102 106 110 111 109 108 109 109 110 113 114 112 108 104 99 92 86 82 78 75 71 68 64 61 55 51 51 53 52 48 48 51 53 58 62 68
88 88 91 95 101 101 102 106 109 110 109 108 109 109 111 113 114 111 107 101 95 91 86 82 78 74 69 66 64 61 57 54 51 50 52 47 48 49 50 50 53 57 63
89 91 95 101 102 104 108 110 111 112 111 111 111 113 114 113 109 103 98 92 88 84 80 77 72 69 65 61 59 56 56 55 49 51 48 41 50 50 48 49 50 53 58
92 95 102 103 104 109 112 115 116 113 113 113 114 114 112 108 102 95 91 87 82 78 77 73 69 65 61 57 55 54 53 50 48 49 46 37 48 43 46 44 46 49 54
96 103 104 105 110 115 119 119 116 115 115 115 114 111 107 99 95 90 86 82 77 73 70 66 64 60 58 55 53 52 49 46 45 45 42 36 40 40 40 41 43 47 50
101 104 106 110 114 118 118 118 117 115 114 114 111 106 98 93 88 84 79 75 71 67 64 61 60 59 57 54 52 50 46 43 43 42 41 34 34 35 36 39 41 42 46
106 106 109 114 117 119 119 118 116 114 114 111 106 98 92 88 82 76 74 71 68 64 61 59 58 56 54 51 50 47 44 43 41 38 38 31 31 29 33 36 39 40 42
104 108 114 117 119 118 118 116 116 114 110 105 99 92 86 82 77 73 70 67 64 61 58 55 53 52 50 47 45 44 43 41 40 34 35 29 29 30 28 33 34 36 38

GFSMA_250_spd_051.txt.gz
Wind_Speed
58 51 51 47 49 49 51 62 60 59 68 75 78 77 79 79 76 72 73 74 72 65 69 69 69 72 74 77 78 78 77 77 77 75 71 67 61 59 54 52 52 54 56
55 50 47 44 48 55 60 67 70 71 72 78 84 82 77 77 81 77 76 71 67 71 72 74 76 78 81 81 84 83 84 84 82 78 76 73 70 65 63 59 55 51 50
43 46 53 56 63 67 71 75 79 78 72 73 76 79 82 78 73 70 70 70 72 75 79 82 81 81 82 84 84 84 85 86 82 82 82 78 74 69 66 68 65 60 54
51 62 56 53 59 66 73 74 74 76 76 82 81 78 72 68 68 71 74 77 80 83 84 83 82 81 81 80 81 81 82 84 85 85 85 82 78 72 68 67 69 69 66
59 59 62 68 74 76 71 77 78 80 80 73 73 69 66 68 73 76 79 80 81 81 81 81 80 79 80 81 84 86 88 90 91 90 91 87 81 75 72 72 73 73 72
58 62 69 73 71 73 78 78 76 71 71 69 68 69 71 75 77 79 80 81 83 83 81 80 81 84 86 88 91 94 96 96 96 95 92 89 85 82 81 81 81 82 82
75 71 70 72 73 75 72 74 69 67 65 65 67 72 75 76 79 82 85 84 84 84 86 88 89 90 92 95 97 99 99 98 96 95 94 94 94 93 93 93 94 94 91
64 68 68 68 69 71 71 68 68 66 67 70 71 74 76 79 80 81 81 83 84 87 90 93 95 97 100 101 100 100 99 100 102 103 104 105 105 105 104 101 98 96 94
58 57 62 64 66 65 63 64 65 67 69 73 75 78 77 77 77 81 86 88 89 89 91 96 100 102 102 102 104 106 108 110 113 113 110 107 105 103 100 99 97 95 93
57 62 63 63 61 62 64 65 66 68 72 75 79 77 77 80 83 84 87 89 90 94 99 103 103 102 106 110 113 114 114 112 111 110 109 107 106 102 99 97 94 95 94
59 59 58 57 61 66 67 67 70 74 76 79 80 79 83 88 91 91 89 93 97 102 105 105 107 111 114 115 113 112 111 109 109 108 106 105 102 99 97 95 94 93 93
56 55 56 59 67 68 68 72 74 76 79 79 80 85 89 91 93 94 95 98 101 106 105 111 115 114 113 112 111 109 107 105 103 101 98 95 94 93 93 94 92 91 93
55 56 59 65 69 70 75 75 77 78 79 82 86 89 91 94 96 97 101 104 107 107 111 116 116 116 115 113 110 106 105 102 98 96 93 90 87 87 85 86 86 86 87
59 61 63 68 71 74 73 74 78 79 82 86 89 92 95 97 99 102 106 110 109 113 117 116 114 114 113 110 107 104 99 95 92 89 87 85 81 78 77 77 79 81 80
62 62 65 71 74 76 75 76 77 82 86 89 92 95 97 99 103 107 111 112 114 117 118 116 115 112 107 102 98 96 95 90 84 79 76 74 72 71 70 71 72 72 72
65 66 71 78 78 77 79 78 82 86 89 92 95 96 100 103 107 112 113 116 121 120 116 118 113 107 99 93 89 87 84 81 77 74 71 69 66 64 63 64 65 66 67
68 73 77 81 80 79 83 86 87 91 94 97 99 101 104 106 113 114 115 120 122 119 117 111 105 101 92 87 82 79 76 72 70 66 65 63 62 60 58 59 60 63 63
72 76 79 82 83 84 86 91 93 95 98 100 102 105 108 112 115 116 120 122 120 118 111 103 103 95 90 83 77 73 69 64 62 60 59 58 56 54 54 54 56 57 59
75 78 81 84 87 86 88 91 95 98 101 103 106 109 114 115 117 121 122 121 118 114 108 104 99 92 85 79 74 68 65 60 56 54 55 54 51 50 50 50 51 53 56
78 81 85 87 89 89 93 95 99 102 104 107 109 114 115 118 122 122 122 119 117 113 107 100 93 87 79 76 71 66 63 57 54 50 52 50 50 49 47 49 50 52 54
80 84 87 88 89 93 95 98 101 103 105 109 114 114 118 123 123 123 120 117 114 110 102 95 89 81 77 72 67 62 60 56 51 49 48 44 51 47 46 47 49 50 51
83 86 87 89 93 97 98 100 102 105 109 112 113 118 123 124 122 120 117 113 110 102 95 88 84 77 74 67 63 59 57 54 50 48 47 41 48 42 43 45 46 46 48
85 86 89 93 96 99 101 103 106 108 111 112 117 122 123 123 121 116 113 110 103 95 88 83 77 72 68 64 60 57 54 50 47 47 48 37 43 39 40 41 43 45 46
85 88 92 96 98 102 104 106 109 112 111 117 121 123 122 121 118 112 108 101 95 89 82 78 71 68 64 61 57 54 52 48 43 43 46 41 37 37 38 39 41 43 43
87 91 95 98 101 104 107 109 113 111 116 120 122 122 122 118 113 107 101 94 89 85 78 71 67 65 62 58 55 53 51 48 44 39 44 40 36 34 34 36 40 42 42
91 95 98 101 103 106 108 115 115 116 119 120 120 121 118 113 107 102 93 88 83 79 73 68 65 62 60 56 53 51 51 48 43 38 39 37 37 36 29 33 36 41 41

GFSMA_250_spd_054.txt.gz
Wind_Speed
52 50 53 48 58 62 60 56 50 43 54 64 68 67 76 76 73 74 76 81 82 75 70 66 66 70 72 74 76 77 77 76 74 73 73 72 72 72 71 71 69 66 60
56 54 54 59 63 56 51 47 49 61 70 66 68 74 78 81 81 79 80 77 70 67 67 68 69 72 75 76 77 77 78 77 77 76 74 72 73 74 74 73 71 69 66
61 60 58 59 60 51 50 59 61 65 72 75 80 84 81 78 78 75 72 71 67 70 71 72 73 74 76 78 79 81 81 80 79 79 80 79 79 77 77 78 78 76 73
54 57 57 50 50 56 62 67 71 74 76 80 76 73 79 74 72 72 69 70 73 72 73 77 79 80 79 79 79 79 81 82 85 86 86 86 86 87 86 85 84 82 80
55 57 60 61 61 63 68 73 72 74 77 81 80 75 76 73 72 71 72 72 75 78 80 79 79 79 80 81 83 84 85 85 87 88 90 93 93 93 92 90 87 84 80
56 56 60 66 69 71 72 76 81 81 76 72 72 69 71 71 71 70 72 76 78 81 80 80 81 83 87 87 87 87 87 88 92 95 96 95 94 93 93 93 91 89 85
60 63 67 71 69 71 72 74 70 67 71 74 69 68 68 71 71 73 77 81 82 82 83 86 88 91 91 88 90 93 93 96 98 95 93 95 98 100 101 101 101 100 99
60 60 63 67 69 68 65 66 68 72 68 65 68 69 70 70 73 78 83 84 85 85 86 91 95 96 95 94 93 94 98 100 99 101 103 105 104 104 105 105 104 103 101
55 58 61 58 61 65 68 67 67 67 63 68 71 72 74 78 79 79 81 87 89 89 92 95 97 95 95 99 101 103 101 103 106 110 109 106 105 104 103 103 104 103 101
51 54 57 61 63 67 65 67 66 64 66 70 72 76 80 81 83 86 86 85 89 94 95 97 98 97 99 103 106 106 107 109 115 113 110 109 108 107 106 104 103 101 99
58 59 61 63 63 63 64 64 64 69 71 73 77 79 81 83 85 87 89 93 94 93 95 96 99 101 105 108 110 109 111 115 114 111 110 109 108 107 104 102 100 100 98
54 55 55 57 58 60 62 67 68 73 75 77 80 80 83 85 87 90 92 95 97 99 97 101 104 107 110 111 112 117 116 113 110 108 107 106 105 104 101 99 96 94 94
46 52 53 54 59 62 62 68 72 75 78 82 84 84 86 88 92 95 97 98 100 103 104 105 107 110 112 116 118 114 112 106 107 105 103 102 99 96 92 91 91 90 89
42 59 57 59 62 63 67 71 74 79 83 88 87 87 90 93 96 99 100 101 101 104 108 111 111 113 117 116 114 110 106 103 102 96 92 90 88 86 83 80 80 81 81
48 55 60 63 67 70 72 76 80 84 86 88 89 91 94 97 100 102 104 105 106 107 112 115 117 117 116 114 109 105 103 97 91 88 84 81 78 76 74 72 73 74 76
51 56 62 67 72 74 76 82 87 86 87 92 96 96 99 101 103 105 106 108 111 113 112 120 121 120 117 114 106 101 94 89 84 80 77 74 72 68 66 65 66 67 68
55 61 66 72 75 76 82 88 88 88 89 94 96 99 102 103 105 107 109 112 115 115 118 120 122 120 112 110 104 96 87 83 79 75 72 69 66 63 60 60 60 61 62
60 66 70 72 74 80 85 88 90 91 94 97 100 102 104 105 107 110 112 116 116 119 122 121 122 117 109 104 99 92 85 78 74 69 67 65 61 59 56 56 56 56 57
66 68 73 75 80 85 87 88 91 94 98 100 102 104 107 108 111 113 117 117 119 122 124 121 115 111 107 102 93 86 81 76 68 62 60 59 58 56 53 52 53 54 54
70 73 78 80 83 86 90 92 94 97 100 102 105 107 109 112 115 117 121 120 121 126 124 118 111 106 104 97 88 82 77 70 63 58 57 54 53 52 48 49 51 51 52
74 76 81 82 86 90 93 95 98 100 102 105 108 110 111 114 116 122 123 123 126 125 120 114 109 103 98 90 83 77 70 66 60 55 55 48 51 49 46 46 48 49 49
76 79 83 87 91 93 96 99 101 102 105 107 109 111 114 117 120 124 123 126 126 123 116 112 103 97 90 83 77 71 66 63 59 52 52 45 46 46 45 44 45 46 47
79 83 87 90 93 97 100 100 102 104 106 107 109 114 116 120 124 123 127 123 121 118 113 106 98 93 85 78 71 68 64 62 57 52 51 46 44 41 44 42 43 44 46
83 87 89 92 95 98 99 101 103 104 105 107 112 116 119 122 124 128 124 120 116 112 106 97 92 86 80 72 69 65 62 60 55 52 49 47 45 38 38 42 43 42 44
85 88 91 93 93 96 99 102 103 104 106 110 115 119 121 122 127 125 122 118 111 108 97 91 85 81 75 70 66 63 59 58 54 49 46 45 44 40 32 39 40 40 41
85 86 87 90 92 97 101 104 106 108 110 114 118 119 122 125 123 123 118 111 104 99 91 83 81 76 71 67 66 60 57 56 53 49 44 41 40 43 32 34 37 40 40

GFSMA_250_spd_057.txt.gz
Wind_Speed
54 57 62 60 59 59 57 57 55 62 66 65 70 57 54 62 66 71 78 82 85 81 82 86 82 78 78 72 70 68 70 69 68 65 64 65 67 68 67 67 66 64 64
57 60 62 60 60 59 60 61 61 66 65 65 63 57 63 74 80 83 84 83 82 82 79 76 75 74 72 71 75 74 75 72 70 70 72 72 72 71 71 73 74 73 72
62 62 66 64 63 64 65 62 57 64 65 62 66 71 73 76 80 83 81 83 81 82 80 78 76 73 71 72 76 78 77 74 75 78 80 80 78 77 74 73 74 75 76
64 68 68 67 66 65 70 69 70 68 63 66 71 73 85 81 84 80 79 83 83 75 76 76 74 76 77 78 79 80 80 80 84 86 87 85 83 81 83 84 85 83 83
60 64 66 63 66 62 62 63 63 66 68 76 77 79 81 75 76 81 80 80 77 77 76 75 78 80 83 84 85 86 86 85 88 89 89 87 86 88 89 91 92 90 85
56 59 62 62 65 65 64 65 69 74 77 77 77 78 77 78 79 75 76 76 73 78 81 84 82 82 84 88 89 88 89 90 92 92 91 91 91 92 95 96 93 90 88
64 62 61 58 61 57 64 69 71 78 77 77 71 72 78 75 75 75 75 75 76 80 82 84 87 90 89 87 88 90 93 96 95 93 94 94 96 98 97 95 95 95 97
51 55 54 55 59 66 68 69 73 74 69 71 76 78 76 74 64 68 79 81 81 85 85 84 88 91 91 93 92 89 89 95 96 96 97 98 99 99 100 101 101 103 104
56 59 60 63 67 66 65 64 67 70 71 74 76 75 69 68 72 74 71 77 84 85 87 91 93 93 93 95 95 96 94 96 95 99 99 101 104 107 109 109 108 108 106
52 53 54 54 56 60 65 70 72 72 70 68 68 67 69 72 74 80 87 82 80 85 89 92 95 97 98 98 98 97 99 99 99 99 104 107 110 112 112 112 109 107 105
50 54 58 58 59 62 65 66 66 67 69 70 66 68 73 76 80 86 90 94 95 94 92 90 93 98 100 101 100 97 101 99 101 106 109 111 111 109 108 108 108 107 106
54 55 55 57 56 56 59 61 62 67 70 71 72 75 77 82 89 90 93 94 95 97 99 100 100 100 102 103 103 104 104 105 107 111 110 108 106 104 103 103 103 102 99
52 52 52 51 41 48 59 64 67 70 72 74 75 79 83 88 95 99 98 98 98 102 105 107 106 103 103 103 106 111 108 110 114 113 110 106 103 101 99 95 92 91 89
48 49 49 48 47 55 67 70 75 76 74 77 80 85 88 94 99 98 98 99 103 106 109 111 111 110 108 108 110 111 112 112 113 110 106 104 101 94 87 85 83 82 81
52 48 51 57 60 63 68 70 72 78 81 84 88 89 94 99 100 100 102 106 109 110 112 113 113 115 115 114 115 115 116 115 110 105 103 100 93 87 81 76 74 73 72
53 53 59 62 62 65 67 71 76 83 86 89 91 95 99 101 101 103 106 110 113 115 113 114 116 120 122 121 120 119 118 112 106 103 100 94 89 82 76 71 66 65 66
57 59 62 64 65 66 71 76 80 86 89 91 96 100 101 103 104 107 110 113 116 117 115 113 119 123 125 125 122 117 116 109 102 96 91 87 85 78 70 64 60 59 61
62 62 62 63 66 72 76 81 86 88 91 94 98 100 103 105 108 112 114 116 117 117 118 118 121 127 127 127 124 114 109 105 101 92 85 81 77 71 66 60 56 55 57
60 63 64 67 72 78 82 85 87 91 94 97 99 101 105 108 110 113 115 116 118 119 122 124 126 125 126 127 118 112 103 98 93 86 79 75 71 66 63 58 54 53 53
62 65 69 72 76 80 84 86 88 91 95 99 101 104 106 108 111 114 116 118 120 123 126 128 126 127 124 120 118 106 100 95 85 80 74 68 66 64 61 56 52 51 50
66 69 72 76 80 82 85 88 90 93 96 99 101 103 104 108 112 116 120 121 124 127 129 130 131 126 122 115 108 103 94 87 81 73 68 65 61 60 58 55 51 46 49
67 72 75 77 79 82 85 89 91 94 97 98 98 102 108 113 116 117 117 119 123 127 126 131 127 125 122 114 104 97 89 81 75 71 64 63 57 55 53 51 52 48 46
65 69 73 77 81 85 88 90 93 95 96 98 103 107 111 116 119 120 121 121 121 124 127 124 120 120 115 111 100 92 84 76 72 68 61 59 55 52 50 48 50 48 44
69 72 77 81 85 87 90 92 93 94 98 104 107 111 115 116 118 120 120 120 125 126 125 121 116 108 104 101 94 84 79 72 69 63 58 57 52 50 49 45 48 46 43
72 75 78 81 84 86 87 93 97 100 104 109 111 115 116 115 117 120 123 127 124 120 122 118 110 103 97 91 87 80 72 67 67 61 54 53 49 48 47 44 45 45 43
72 76 80 85 89 93 94 98 104 108 109 110 113 113 114 116 118 121 125 124 119 118 115 111 105 98 90 84 81 74 68 64 60 59 52 50 45 44 46 41 41 43 40

GFSMA_250_spd_060.txt.gz
Wind_Speed
53 52 56 57 57 60 61 60 63 65 63 65 61 65 66 67 65 66 64 65 69 73 78 84 87 83 85 85 83 79 77 70 70 70 68 67 67 66 66 66 67 67 68
55 55 60 63 63 64 63 63 65 66 62 62 66 68 68 65 72 69 69 70 72 80 87 85 82 84 88 84 85 80 74 73 72 73 71 71 70 68 67 70 73 75 73
57 58 62 65 69 71 70 66 65 67 66 67 67 67 67 68 67 72 75 81 85 84 82 82 86 84 82 82 76 76 76 77 77 78 79 78 78 77 78 78 77 77 76
60 60 61 60 65 60 62 61 65 63 60 62 65 65 66 70 71 76 81 80 77 79 78 83 81 82 77 78 77 77 78 80 81 82 82 82 83 83 83 83 83 81 78
65 62 62 58 56 59 63 68 64 64 66 67 66 67 72 75 78 78 81 81 81 81 80 81 79 77 77 78 79 79 80 84 84 85 86 85 87 86 86 86 85 84 83
66 65 58 61 63 66 62 62 66 67 65 69 72 71 73 75 80 81 79 79 82 86 84 76 75 74 78 81 82 83 86 89 88 86 86 88 87 87 87 87 87 87 87
72 58 68 61 64 64 64 67 67 62 65 70 71 72 77 77 76 76 80 83 83 76 73 76 78 81 82 83 83 85 87 91 91 90 91 90 89 89 87 87 89 88 86
56 53 49 54 60 64 72 65 66 68 71 75 79 75 72 73 75 79 79 75 75 76 76 78 81 88 90 90 88 88 89 90 91 93 93 93 92 91 89 90 91 91 92
62 60 63 59 57 64 62 65 65 67 72 74 73 76 77 79 78 79 76 73 73 76 81 84 89 91 95 94 95 94 94 93 95 96 96 96 95 94 95 96 95 95 99
51 52 53 55 57 60 62 68 65 68 72 73 72 77 78 78 78 76 79 76 75 77 81 86 92 99 101 99 99 96 97 99 100 99 98 98 99 99 101 100 100 103 104
49 53 57 58 58 59 59 61 65 71 73 75 72 74 77 79 78 79 83 86 87 86 88 92 95 99 102 102 101 100 102 106 104 102 102 104 104 103 102 103 103 100 101
51 53 54 57 59 61 63 67 65 70 73 74 76 78 78 81 84 87 84 86 91 98 101 106 107 105 103 104 105 105 109 109 107 107 108 109 109 106 105 100 99 98 96
52 54 56 60 62 64 66 68 68 69 72 71 78 81 82 87 87 87 91 93 98 102 105 110 111 111 110 109 108 108 109 110 111 113 114 115 113 109 101 100 97 93 92
48 51 58 62 64 66 66 67 66 67 68 76 80 84 88 87 88 92 97 101 103 105 109 110 113 114 116 115 116 115 111 110 113 115 114 116 114 107 101 97 93 88 82
54 58 65 65 60 62 64 66 68 70 74 79 83 83 85 91 95 99 104 105 107 108 108 111 114 117 119 121 119 116 114 113 114 116 117 112 106 100 93 89 83 77 73
54 57 61 63 64 64 67 69 71 75 78 77 80 84 90 95 100 103 105 108 110 110 110 113 114 118 122 122 123 120 115 114 118 119 114 110 101 97 93 84 76 72 66
62 64 61 61 65 68 71 75 77 79 81 81 85 89 95 98 100 104 106 108 110 113 113 111 115 120 122 124 123 121 119 120 119 118 113 106 95 92 87 80 74 68 61
57 56 58 62 66 71 75 79 81 81 82 85 89 92 97 101 101 103 106 110 113 115 116 115 119 122 124 122 122 122 122 122 116 111 107 97 89 84 81 73 71 65 59
57 61 63 63 64 66 71 75 79 82 85 90 92 95 96 99 102 106 108 110 113 116 120 123 123 123 120 121 121 124 123 115 109 104 98 90 85 80 76 70 67 63 58
57 56 59 62 63 66 68 73 77 80 83 85 88 92 96 101 105 107 110 114 117 121 126 128 124 120 119 121 125 125 119 112 105 99 88 86 79 75 73 69 66 62 56
57 58 58 58 58 60 63 67 71 76 82 86 91 96 100 103 106 110 115 118 120 121 121 121 122 124 125 125 127 122 117 109 99 98 82 82 75 72 68 65 62 59 55
50 51 53 57 60 63 68 72 77 82 86 91 94 98 103 108 113 116 114 113 116 116 115 120 121 122 123 128 124 118 113 105 94 91 79 77 72 68 64 62 59 57 53
53 56 59 62 65 69 74 79 82 86 91 96 101 106 111 111 109 110 112 111 111 116 121 123 123 124 124 122 118 112 106 98 91 84 74 72 67 64 61 59 56 54 51
58 61 62 64 67 72 78 83 88 92 98 100 102 102 102 104 108 108 106 108 112 117 120 123 125 123 120 117 114 105 98 92 87 80 71 65 64 60 58 55 52 50 49
59 61 65 67 71 76 81 85 87 87 88 91 93 95 97 99 104 108 109 112 114 116 120 123 122 121 117 111 104 99 91 85 79 74 68 63 60 56 55 51 48 48 47
63 68 71 75 76 77 82 87 86 89 93 93 95 98 101 103 105 109 113 116 116 118 119 119 119 116 110 102 97 92 85 78 72 69 64 61 55 50 52 47 45 45 44

GFSMA_250_spd_063.txt.gz
Wind_Speed
47 47 43 46 49 52 52 49 51 52 53 60 61 62 63 67 64 64 67 67 69 70 71 69 70 73 80 81 78 81 85 86 85 83 76 73 70 68 65 66 65 63 61
57 57 47 49 53 54 54 57 56 58 65 63 67 65 68 67 64 64 68 68 67 68 71 72 76 82 81 83 84 86 87 85 81 78 74 72 70 69 69 69 69 69 69
56 57 55 53 55 55 56 57 62 60 65 67 67 66 62 60 63 65 65 67 70 72 74 77 82 81 90 83 84 87 85 79 76 73 73 74 74 75 76 76 75 72 71
60 55 54 55 55 56 58 56 60 61 59 60 65 63 64 67 68 71 71 72 77 79 80 81 84 85 80 84 83 80 77 75 75 75 75 76 76 78 80 79 79 78 77
60 58 58 61 64 66 66 66 65 64 66 64 66 68 70 74 76 73 70 76 74 78 83 82 83 82 84 80 77 76 79 79 79 81 81 81 80 82 84 82 80 81 81
67 65 67 69 66 63 63 63 62 67 68 70 68 71 73 74 74 72 76 76 75 77 79 81 84 89 80 79 78 80 82 83 84 87 86 86 86 87 87 82 81 82 82
66 68 69 71 73 73 70 63 65 69 71 73 70 72 74 73 75 76 75 78 82 85 88 91 89 81 76 77 79 81 84 88 93 93 92 93 92 92 88 85 85 83 81
73 73 75 71 66 67 62 61 57 57 66 66 71 72 72 72 74 74 76 79 84 88 89 84 82 82 85 84 83 85 91 95 98 99 99 98 97 94 91 90 88 86 86
67 68 64 56 59 64 62 66 71 70 70 71 69 70 71 74 77 81 82 84 87 84 83 81 84 86 87 88 88 93 98 100 102 104 103 102 99 96 95 94 93 91 90
52 56 58 62 68 67 63 62 63 63 65 69 73 74 77 79 81 84 86 86 82 82 83 83 89 88 87 90 93 98 103 106 107 106 105 104 100 97 98 98 95 94 93
46 48 49 54 56 57 58 60 62 66 66 67 72 75 79 80 82 82 84 83 82 86 88 91 89 89 92 96 104 106 107 108 109 109 110 105 103 104 103 101 98 96 99
46 50 52 55 58 59 59 60 62 65 69 72 76 76 76 75 80 85 83 85 89 95 95 95 95 97 99 103 104 106 111 112 112 115 113 113 114 113 108 103 100 100 100
49 48 50 55 58 60 62 62 65 67 71 74 74 73 76 79 83 83 87 91 95 98 99 103 105 107 110 111 110 111 112 113 114 114 119 122 121 115 110 106 102 100 97
48 48 50 56 59 58 59 64 67 70 73 72 73 75 76 80 83 87 91 94 95 98 102 107 112 116 115 115 116 116 116 116 116 118 119 117 114 114 112 110 101 98 93
50 47 45 52 57 59 63 66 67 74 72 72 74 79 82 86 89 92 95 98 100 102 105 111 115 118 118 120 122 121 119 121 120 116 112 112 114 114 114 106 96 95 88
37 46 45 53 58 64 70 72 74 75 74 75 78 83 86 90 93 96 99 103 105 107 107 110 112 116 120 124 124 124 122 119 116 112 113 113 113 113 113 100 95 90 82
50 57 59 65 71 72 72 72 72 72 74 77 81 84 87 88 92 95 98 101 104 105 104 108 113 116 118 123 124 123 123 119 118 115 114 112 109 110 107 97 92 84 77
60 66 69 72 74 74 75 75 75 76 74 76 77 80 82 84 86 89 93 98 103 109 111 111 114 118 118 117 119 117 118 118 117 116 115 106 99 102 99 89 86 76 71
65 69 74 76 78 77 72 71 71 73 75 73 74 75 79 83 88 94 99 103 107 111 114 114 110 110 108 109 113 116 118 121 119 116 112 104 100 93 88 82 79 74 68
72 74 76 78 72 70 70 69 67 67 69 72 76 80 84 89 93 96 98 101 105 107 106 104 103 104 106 109 114 118 120 121 118 112 110 102 98 89 83 76 74 71 68
70 73 71 69 67 65 65 67 69 71 72 76 79 83 87 90 92 93 96 98 98 98 99 100 102 104 107 111 118 122 124 121 115 112 105 95 88 84 79 73 69 66 64
65 64 64 64 64 66 68 70 72 74 76 79 82 81 83 89 91 94 93 97 98 97 97 100 102 108 112 117 120 121 122 119 114 107 97 88 83 78 74 71 66 64 62
60 61 61 62 65 68 71 72 74 75 77 79 79 83 86 90 90 92 92 92 95 99 103 105 110 115 117 119 121 123 120 114 105 99 89 83 80 74 70 67 62 61 58
59 60 62 63 66 69 72 74 75 73 71 72 77 83 85 91 92 90 89 92 94 99 104 110 116 119 121 122 122 119 113 104 98 92 84 78 77 72 67 64 60 58 54
58 60 61 63 66 69 71 72 71 72 74 80 83 89 89 92 96 96 95 95 100 103 106 112 117 119 119 119 118 111 103 97 91 87 79 74 73 69 65 60 55 54 51
59 60 62 63 64 67 71 71 73 77 79 85 87 88 94 97 109 102 99 102 104 106 107 111 113 114 115 114 110 103 95 89 85 81 74 70 68 64 60 55 51 50 48

GFSMA_250_spd_066.txt.gz
Wind_Speed
57 53 54 49 46 48 49 46 45 48 49 49 52 52 53 57 60 62 65 65 65 63 65 68 71 77 76 74 76 76 79 83 85 88 87 85 88 84 77 75 72 70 67
58 56 51 52 52 54 56 55 50 53 55 54 55 58 59 61 64 65 66 64 70 68 71 75 78 80 75 77 79 81 81 82 87 87 87 90 82 79 76 76 75 72 68
64 63 63 60 61 60 59 57 56 56 56 58 60 62 62 62 66 70 66 69 71 75 74 83 81 76 78 82 82 82 85 87 90 86 86 78 78 79 79 79 78 77 73
68 67 69 66 64 63 61 62 59 61 60 66 66 68 68 72 66 70 71 73 74 75 81 80 77 80 82 83 85 85 90 89 88 83 79 78 79 78 78 79 81 81 81
65 63 66 65 66 67 67 64 61 63 64 69 71 71 74 74 71 75 74 73 77 82 78 81 82 83 86 84 88 90 90 90 83 80 82 83 83 82 83 84 84 84 87
69 67 67 70 70 71 70 68 70 72 76 73 71 71 69 72 77 69 73 77 77 78 81 82 84 83 84 88 90 90 85 84 83 85 87 86 84 85 86 87 88 89 89
65 68 69 71 71 70 73 76 73 77 75 77 74 67 65 68 69 69 72 72 77 80 82 81 83 88 88 86 86 86 87 90 92 89 88 89 90 91 92 92 94 94 92
74 73 73 72 73 73 74 75 76 77 71 64 65 66 66 68 71 73 77 77 78 80 83 86 84 87 86 85 84 90 92 95 95 95 95 95 97 98 97 98 98 97 96
77 81 80 79 76 72 66 67 58 61 61 64 66 68 65 65 69 71 73 78 80 79 83 82 84 84 85 86 89 92 95 99 100 101 103 106 106 103 102 104 104 101 98
74 75 76 71 67 69 66 62 63 62 66 66 65 65 64 65 69 71 75 78 80 81 79 82 84 85 87 91 94 98 102 105 107 109 111 111 112 110 109 109 106 105 105
60 58 61 56 58 55 56 58 57 60 63 63 64 67 68 71 73 74 77 81 78 79 83 84 87 89 92 95 99 104 108 110 113 115 116 115 116 116 115 113 109 105 103
43 44 45 49 53 56 58 58 58 60 60 62 66 67 70 73 75 76 79 78 80 83 86 88 91 94 99 102 105 108 110 111 113 115 116 119 119 120 121 115 110 108 104
42 46 51 57 61 61 59 60 59 60 60 63 65 67 70 73 79 81 78 80 83 86 91 95 98 102 105 107 108 109 109 111 114 116 118 119 119 119 119 118 114 112 109
46 49 55 57 62 66 68 64 61 59 57 59 66 73 80 82 82 81 81 83 86 90 95 100 103 105 105 106 107 110 113 115 116 117 118 117 116 112 114 116 116 114 109
44 46 51 51 47 48 49 48 53 58 65 71 78 83 84 84 83 85 87 89 89 88 89 97 99 102 105 109 112 113 113 113 114 113 112 112 114 114 114 116 112 107 99
39 43 43 48 53 59 60 62 67 69 73 79 83 87 88 89 87 87 85 87 89 88 87 93 99 104 107 109 111 113 113 110 109 109 110 112 115 115 114 114 106 106 102
38 47 50 58 60 60 64 69 71 75 81 84 88 91 93 90 89 87 87 84 85 88 90 92 97 101 102 106 107 110 109 108 108 109 112 114 116 116 110 108 104 94 88
60 56 55 53 60 68 69 75 79 83 86 89 93 95 91 89 84 82 82 85 88 90 93 92 96 97 99 101 102 102 103 103 105 108 114 118 118 117 110 99 95 91 82
57 57 65 66 69 73 79 85 87 89 89 92 92 88 83 82 82 83 85 86 90 90 90 91 93 92 93 98 102 102 102 104 107 111 117 120 118 115 107 100 90 87 80
62 66 70 75 80 83 85 85 88 89 90 85 81 81 81 83 83 84 87 90 86 86 92 95 94 93 100 101 103 104 101 105 109 113 119 119 116 108 98 88 80 79 72
67 71 76 81 86 86 85 86 85 81 79 79 79 81 82 83 84 86 86 86 88 91 94 95 95 99 101 101 102 101 102 108 109 115 117 114 110 100 94 85 79 72 69
73 75 80 79 81 80 78 79 77 76 78 79 78 81 84 83 84 83 85 86 88 93 94 95 98 102 105 104 104 104 110 111 111 111 112 105 101 91 86 81 77 71 67
73 72 70 72 75 75 76 76 74 73 76 78 79 78 73 74 76 78 81 84 87 96 96 97 101 108 105 110 105 108 111 112 113 112 106 96 94 87 83 77 72 68 65
61 64 65 65 62 62 64 65 66 67 66 65 67 71 74 77 78 79 82 86 93 94 94 105 111 114 116 114 112 114 114 113 111 108 103 93 88 81 78 74 69 64 62
54 55 54 56 60 60 60 60 62 63 67 71 73 77 80 83 84 84 84 83 96 91 99 109 111 114 117 117 117 117 114 110 106 101 98 88 83 78 75 69 63 59 57
50 51 55 59 60 62 64 64 67 70 70 73 77 82 83 84 86 88 87 91 93 96 103 108 112 122 121 119 118 117 110 104 100 94 92 86 78 72 68 65 60 54 52

GFSMA_250_spd_069.txt.gz
Wind_Speed
49 41 44 47 51 49 49 48 46 52 52 53 54 55 56 55 58 56 59 62 65 66 70 74 70 69 71 73 78 77 81 81 78 76 82 83 81 84 82 86 85 85 77
47 48 48 50 53 51 52 51 50 51 55 57 58 55 60 61 61 61 67 68 70 70 74 74 73 74 77 79 76 81 83 78 78 80 82 86 83 87 88 86 83 79 78
56 57 60 61 59 55 51 54 54 57 55 54 58 60 61 67 63 64 68 74 75 74 70 73 75 77 77 79 83 81 76 81 84 84 82 85 87 88 84 81 80 80 79
71 65 63 61 61 59 59 61 59 58 56 61 63 65 67 63 65 73 75 72 74 70 74 76 75 77 81 81 79 80 84 85 83 84 86 89 87 85 82 83 83 81 81
63 67 70 69 66 64 62 60 61 60 61 64 65 68 70 73 75 74 71 73 71 72 81 75 78 77 77 81 84 84 83 84 84 86 87 84 84 84 85 86 86 86 86
65 64 63 68 69 60 64 60 62 63 63 66 67 68 72 75 72 65 68 66 71 76 73 74 77 78 79 80 83 85 85 84 86 87 86 86 87 87 90 92 94 94 94
75 73 69 61 61 64 71 72 72 68 68 70 72 68 68 68 67 66 66 67 69 72 76 74 76 77 78 81 85 87 85 88 88 90 91 92 94 96 98 100 100 98 99
76 73 72 74 67 68 70 70 71 71 71 76 75 72 68 63 62 65 66 71 72 72 74 75 77 80 83 85 88 89 90 91 93 93 96 100 102 105 105 105 104 102 102
85 79 72 70 75 75 75 75 75 76 71 62 60 61 62 64 65 69 69 66 67 67 72 77 80 84 88 87 87 87 91 94 97 100 102 105 108 108 106 106 108 108 107
78 81 81 78 75 72 62 59 62 63 58 56 54 57 59 61 63 63 64 66 67 71 74 81 84 85 82 84 88 91 94 97 100 103 105 105 107 109 111 110 108 106 105
66 66 58 49 57 54 59 54 55 54 51 52 58 60 60 64 64 61 63 64 68 75 81 84 88 87 87 88 90 92 95 98 101 102 103 108 110 112 112 112 112 110 108
44 42 43 41 44 49 51 52 53 53 57 61 62 64 65 63 63 66 65 70 74 83 88 91 91 89 89 90 90 95 98 97 99 102 105 108 110 111 112 113 112 112 111
34 38 41 43 46 48 48 50 50 53 58 61 61 62 61 60 62 71 73 78 83 89 93 96 93 90 91 92 93 91 95 99 102 104 105 109 111 113 113 113 112 112 115
40 41 39 40 41 39 44 56 53 51 53 53 53 56 61 64 70 76 82 85 90 94 94 93 93 91 87 88 92 96 96 100 101 104 109 112 113 115 116 116 117 117 116
31 34 34 35 39 43 43 46 51 54 54 58 61 65 70 73 77 82 89 94 95 95 91 85 87 90 90 91 95 96 97 99 103 108 110 115 115 117 117 117 116 118 120
30 30 34 42 45 51 51 56 61 67 68 67 67 70 73 80 86 92 92 93 93 87 83 84 87 91 94 96 97 98 101 104 107 109 113 115 117 118 118 118 119 122 117
24 24 31 38 57 54 54 61 65 65 68 70 77 78 82 88 92 92 91 90 86 85 82 83 86 91 93 94 98 98 102 103 109 110 114 116 118 118 119 120 123 119 115
36 36 40 44 53 59 66 74 65 70 72 77 81 85 90 92 92 92 87 86 83 84 83 85 89 87 89 93 96 97 98 105 103 109 112 115 115 117 119 122 121 115 106
38 38 42 51 60 64 73 75 76 79 77 81 86 93 92 90 89 86 84 84 84 86 88 84 80 84 88 92 92 92 98 102 105 107 112 116 115 116 118 120 117 111 99
48 49 51 54 59 67 73 77 78 79 84 88 91 92 91 86 83 84 83 82 80 77 79 81 80 84 87 87 89 92 98 98 101 105 109 113 114 115 117 117 108 101 95
58 56 55 59 65 71 76 81 84 85 88 87 87 85 83 82 84 78 76 75 76 81 84 84 85 87 88 89 90 95 96 95 101 108 107 109 114 114 114 108 102 95 89
60 63 63 70 73 77 80 83 86 88 84 84 80 75 77 73 72 74 77 79 78 81 84 83 87 89 89 90 94 99 97 98 96 108 104 105 112 109 107 101 95 91 84
65 68 71 72 72 79 83 87 79 76 74 72 72 71 71 72 74 77 79 80 79 82 87 88 89 89 90 96 97 96 99 100 101 107 107 105 111 107 102 97 89 84 77
60 62 61 60 64 64 65 63 61 63 63 65 69 70 71 72 74 76 80 82 85 87 90 90 92 93 96 101 102 98 102 100 104 108 112 107 107 101 95 91 84 77 72
48 51 51 52 50 52 55 57 58 63 65 69 71 72 76 77 80 83 84 85 88 90 93 96 97 100 104 107 103 104 104 104 105 107 115 105 101 96 92 85 78 73 65
49 50 51 52 55 57 58 61 64 67 71 72 74 77 81 83 87 89 88 86 86 89 94 97 101 103 103 101 105 107 110 107 107 104 110 102 99 93 87 80 73 66 60

GFSMA_250_spd_072.txt.gz
Wind_Speed
51 36 38 39 35 39 42 41 43 44 49 48 48 46 47 48 48 51 54 55 58 59 62 64 66 68 66 64 63 63 71 71 69 71 75 76 74 76 80 83 82 81 83
62 50 47 42 42 34 33 36 47 49 50 48 48 46 47 48 49 54 56 59 62 62 64 67 70 69 66 65 67 70 69 69 72 76 76 77 81 84 85 86 86 86 85
56 60 56 57 45 42 38 43 50 49 54 56 53 51 50 51 56 60 61 61 61 65 68 71 67 64 66 66 69 75 71 74 75 77 79 82 83 86 87 88 86 85 82
54 50 50 52 51 50 51 58 60 60 58 60 57 53 55 54 61 59 61 66 67 65 68 64 64 66 69 71 72 72 75 77 78 79 82 83 85 84 83 83 85 85 86
56 56 54 51 54 58 66 66 62 64 63 58 56 58 55 60 68 68 66 66 68 66 60 64 65 68 70 72 75 77 73 75 78 81 84 82 80 80 82 85 87 86 85
51 54 56 57 57 64 67 61 53 59 59 58 58 57 61 70 68 69 66 68 66 64 63 64 66 70 74 73 71 71 72 75 81 83 82 83 84 84 85 86 87 88 88
68 58 61 64 66 62 59 59 61 56 52 55 58 60 64 65 67 68 73 62 64 64 65 66 70 71 68 65 68 74 79 82 86 84 84 86 88 86 87 87 87 88 92
66 73 65 67 68 68 70 73 74 71 69 66 63 66 64 69 70 66 64 61 61 63 64 65 66 66 67 73 77 83 87 89 88 85 86 86 88 89 90 91 94 96 97
78 75 77 74 73 76 76 79 79 73 75 74 73 62 74 65 60 59 56 61 61 61 63 61 63 67 71 78 82 88 92 90 87 86 86 87 89 90 93 97 100 101 101
75 72 77 79 78 75 83 74 78 74 72 62 61 59 57 54 54 59 62 59 60 61 56 59 65 73 80 85 89 91 91 87 85 86 86 90 91 96 99 101 103 105 105
83 80 72 76 69 56 59 68 54 55 50 51 48 45 48 52 55 57 50 50 52 57 61 68 76 81 86 88 90 91 87 85 84 87 90 94 96 98 99 101 105 109 110
56 61 55 57 55 52 51 47 48 45 42 46 44 49 47 48 45 50 51 58 59 66 70 74 81 87 93 93 91 89 85 84 86 87 89 93 96 98 102 103 107 109 112
46 49 53 49 45 48 49 48 50 50 49 49 47 46 43 43 49 53 56 59 65 71 77 80 88 94 96 93 90 84 82 84 85 89 91 93 97 101 104 108 111 113 117
37 37 39 42 45 50 53 50 49 48 45 43 40 43 48 54 60 64 67 70 74 78 76 87 96 98 92 86 86 86 82 85 87 89 90 96 100 103 103 106 110 118 122
43 45 45 42 43 46 47 45 42 50 53 51 49 53 56 63 68 73 74 73 74 75 87 98 95 94 89 87 86 84 84 82 85 85 89 92 97 98 102 102 110 116 121
33 36 37 38 39 42 49 52 49 48 51 55 58 63 67 73 73 78 78 74 81 90 98 98 91 89 87 87 82 81 80 82 85 91 93 98 98 99 102 106 115 118 120
24 30 33 37 42 48 44 46 47 53 56 61 67 67 71 72 77 79 80 88 93 93 91 92 86 83 79 78 79 82 86 89 91 95 95 98 99 99 104 109 114 115 118
34 36 35 33 39 40 39 37 47 53 55 62 66 70 72 74 79 86 89 90 91 87 86 83 77 77 79 82 84 85 90 90 93 97 98 98 99 102 106 112 116 115 121
42 44 40 38 43 45 47 44 49 56 62 62 67 72 79 86 88 89 87 89 85 78 74 74 78 81 82 86 87 90 90 93 94 97 98 100 103 106 108 115 114 115 115
44 40 44 47 50 52 52 49 55 59 64 69 73 79 83 86 90 85 77 73 75 74 76 79 80 82 86 90 92 94 92 97 97 100 100 104 107 108 110 110 108 107 109
44 48 52 56 59 57 58 61 65 66 71 75 79 85 83 80 71 71 72 70 73 74 76 80 83 85 88 92 95 97 95 91 95 98 100 103 103 103 106 106 105 104 108
49 53 51 53 57 61 65 67 69 69 72 72 71 65 65 60 60 63 66 67 69 73 79 82 85 88 94 97 98 96 95 97 94 98 99 100 103 99 102 101 101 102 105
52 53 57 59 63 66 63 60 59 60 54 52 56 57 56 58 62 67 69 73 75 78 83 86 90 94 97 98 97 96 97 95 96 98 96 91 98 99 100 103 98 101 100
43 44 45 45 45 45 47 50 52 53 53 57 60 60 60 63 64 70 75 76 78 81 86 90 95 99 101 101 96 93 92 93 96 98 101 92 99 100 102 102 99 98 93
43 46 48 49 50 51 53 56 59 60 61 62 62 63 64 66 70 76 79 79 82 86 90 95 101 103 103 99 97 94 95 95 93 97 104 96 103 100 100 101 98 94 87
49 51 53 55 56 57 60 62 64 64 65 67 68 68 68 71 75 81 80 82 86 91 95 100 105 107 103 99 98 98 99 98 98 96 103 102 104 102 94 101 94 88 84

GFSMA_250_spd_075.txt.gz
Wind_Speed
30 29 38 37 36 35 39 38 39 41 38 40 44 48 48 48 48 48 51 46 48 48 54 54 53 58 61 63 63 67 59 58 61 62 67 68 70 70 72 73 74 75 77
38 35 40 35 36 38 37 39 36 40 42 39 39 43 42 48 47 50 52 51 50 55 55 54 60 62 64 65 62 60 61 61 62 66 68 70 69 68 68 70 73 76 79
49 47 52 50 46 47 46 45 45 49 42 37 40 38 45 54 55 54 50 49 48 54 58 61 59 62 66 63 63 61 60 64 67 67 69 64 64 68 73 73 74 73 71
51 53 52 59 57 57 56 51 51 41 37 44 46 47 52 56 56 50 48 49 55 62 62 61 62 63 62 61 62 62 65 65 69 67 64 66 70 71 73 77 78 76 76
48 51 55 56 50 47 49 48 46 45 46 48 56 55 63 64 58 54 52 56 57 59 59 59 56 63 62 64 62 62 63 68 68 64 68 71 73 76 79 78 77 75 74
49 52 45 54 51 57 56 51 55 55 53 54 61 62 64 66 64 55 57 64 66 66 58 59 61 60 61 62 62 64 61 62 64 66 75 81 78 79 76 76 78 77 77
57 56 57 50 59 56 54 58 56 56 58 62 65 64 69 67 67 69 60 63 57 57 57 58 60 59 59 61 60 58 57 63 71 76 82 84 82 80 77 79 80 80 80
48 60 59 60 59 57 56 63 57 60 59 64 65 71 73 67 59 59 60 55 54 57 58 53 54 58 56 58 60 63 68 73 76 83 84 84 81 80 79 79 80 81 83
64 64 60 62 64 66 71 73 70 67 65 71 72 66 60 59 54 50 53 53 52 52 55 55 52 49 51 54 62 65 71 77 84 91 88 85 78 79 79 80 81 83 84
65 71 70 69 72 74 76 74 73 75 74 71 69 53 50 51 51 52 48 50 51 52 49 47 51 56 58 62 67 72 78 83 93 91 85 82 81 78 77 81 82 85 87
75 73 77 81 81 83 72 70 64 53 58 51 48 47 49 48 47 48 50 56 45 43 50 53 53 63 67 71 73 76 86 91 91 89 86 84 82 81 81 81 83 85 87
60 62 62 64 66 68 70 65 50 46 47 46 46 47 46 49 50 48 49 48 47 54 58 62 65 68 73 74 77 87 93 87 87 86 81 79 78 78 81 84 87 89 92
36 37 38 41 40 39 43 42 46 44 44 48 48 48 47 47 51 56 56 52 53 59 64 67 72 73 72 82 90 89 86 86 86 80 80 79 78 82 86 91 92 92 99
35 37 36 38 38 39 40 42 45 48 46 50 52 49 50 49 50 51 54 55 59 63 67 70 73 71 83 93 85 84 82 82 77 77 82 85 87 88 91 97 97 102 101
37 39 42 40 39 40 45 48 47 45 48 55 54 54 54 55 58 59 57 58 62 68 71 68 70 85 90 87 81 80 80 80 80 83 85 88 91 94 97 98 103 104 106
42 42 41 41 41 40 40 42 45 44 45 49 55 58 62 61 55 54 61 64 68 66 64 75 90 87 86 81 78 76 76 80 83 85 88 91 93 97 101 102 103 104 105
41 44 46 51 52 46 40 38 38 45 49 52 53 54 56 58 61 62 64 67 62 69 78 84 86 81 74 76 76 76 78 82 85 88 92 96 98 100 103 103 104 105 107
37 41 44 45 43 41 40 37 41 44 46 51 57 57 57 64 63 62 65 68 80 85 83 78 74 73 72 73 72 75 79 83 88 91 95 99 103 106 103 104 106 107 106
38 39 41 45 44 43 41 43 44 45 50 54 55 58 62 58 61 65 75 81 82 78 66 68 64 66 69 71 74 77 82 86 90 94 98 101 104 108 109 105 104 104 105
38 39 43 48 48 49 48 48 48 52 57 56 55 56 60 66 72 76 74 68 62 62 61 65 66 69 71 73 78 81 85 87 92 96 100 104 104 106 105 104 104 105 106
44 43 46 47 51 51 51 52 56 54 43 44 48 53 56 58 61 60 60 64 67 67 67 67 70 73 74 75 77 81 84 87 93 99 103 107 106 105 101 102 103 104 106
42 44 46 44 46 50 49 43 46 49 51 48 48 50 51 54 58 59 62 68 68 69 67 69 74 75 76 80 81 85 87 91 95 101 104 106 105 102 100 102 104 104 104
29 31 34 36 39 42 42 42 43 43 46 48 50 54 56 58 62 66 66 65 69 72 72 73 76 79 81 82 86 90 92 95 99 105 107 104 105 101 101 104 104 103 105
28 30 32 34 38 41 42 44 48 49 51 53 55 57 59 60 64 66 71 73 73 75 76 79 82 84 85 86 88 92 96 99 105 111 113 107 107 104 102 105 105 104 106
38 38 40 42 45 46 49 51 54 55 57 56 57 61 62 65 66 70 72 75 77 80 80 85 90 91 91 91 94 97 100 105 110 115 117 113 109 103 101 105 109 107 107
48 49 49 50 53 54 56 58 61 62 65 67 67 67 69 72 74 75 76 79 82 84 85 90 96 96 96 96 99 103 107 111 114 116 119 113 109 106 102 107 110 109 107

GFSMA_250_spd_078.txt.gz
Wind_Speed
48 52 46 34 30 32 41 36 37 34 34 35 41 40 40 39 38 43 43 44 45 49 49 55 51 55 51 53 51 54 55 58 59 58 60 58 57 60 66 69 70 69 71
54 51 47 48 30 38 42 41 41 43 49 44 43 47 44 40 45 48 48 47 53 53 55 58 57 55 53 52 53 57 57 60 59 59 58 58 62 67 67 64 61 69 65
58 51 42 37 36 38 41 44 43 36 40 44 43 38 35 44 45 48 48 53 57 61 60 62 61 54 55 58 57 56 59 58 57 57 58 63 64 63 57 60 65 70 70
54 48 42 41 39 39 37 40 44 46 46 44 35 38 38 45 48 46 55 56 58 61 64 58 56 59 61 58 57 57 57 61 60 60 60 62 63 59 63 71 75 75 70
56 59 55 53 49 47 51 49 50 50 45 43 42 47 48 49 54 56 55 55 61 64 59 60 61 60 58 57 56 57 60 56 56 59 60 61 65 67 74 77 81 75 72
49 51 54 54 54 55 52 52 55 54 51 53 56 55 55 56 56 56 57 59 62 63 61 60 58 58 57 56 58 57 58 56 58 56 57 59 63 71 74 78 80 78 76
55 54 54 59 59 61 55 48 53 60 58 59 58 60 60 59 62 62 61 60 59 58 56 58 57 53 57 59 58 58 57 54 53 59 59 63 70 78 82 79 76 77 74
43 47 54 62 54 53 53 55 54 57 59 61 64 65 62 61 67 62 57 59 58 58 57 54 55 60 59 56 52 45 52 53 54 61 66 74 82 85 86 80 75 75 73
55 51 47 46 52 54 56 57 57 61 62 66 67 65 69 72 63 57 55 57 53 53 54 60 59 54 46 44 46 48 52 55 59 64 71 83 85 80 74 73 79 77 75
61 64 58 60 57 55 57 57 57 63 67 67 70 69 63 61 51 50 52 53 56 57 58 57 54 51 51 48 55 56 60 63 68 74 81 87 87 79 76 73 73 75 78
57 63 65 64 65 70 68 69 71 72 71 62 61 57 56 58 55 52 53 57 58 58 58 60 59 60 54 53 56 61 66 67 69 81 90 87 76 75 73 74 76 77 79
60 56 58 61 63 64 71 71 69 68 67 65 61 60 56 56 55 55 56 56 59 59 61 61 62 61 62 62 59 66 64 71 80 89 88 76 76 75 76 75 77 81 84
47 47 52 55 58 57 54 58 60 60 57 53 54 55 55 56 52 54 55 62 64 60 59 62 58 59 60 60 62 66 69 77 89 89 76 75 73 74 75 78 81 83 86
42 42 45 46 47 50 53 53 53 52 55 52 52 50 53 56 55 58 60 61 58 55 58 61 57 57 60 61 63 74 79 86 82 72 73 72 73 75 77 81 83 86 91
34 35 37 41 41 43 43 45 47 47 47 50 52 54 53 53 48 51 54 56 63 61 57 59 57 59 60 64 70 83 83 76 73 70 70 73 76 79 83 85 85 88 92
34 37 38 38 38 42 43 45 47 48 48 54 54 49 44 46 45 44 46 48 52 57 58 61 59 65 66 70 77 70 70 67 70 72 74 77 81 83 84 85 86 92 96
39 38 36 39 45 48 50 47 53 57 58 55 52 51 45 44 48 50 51 54 56 58 59 61 62 70 70 69 71 72 71 72 73 75 78 81 83 85 87 89 91 96 98
42 42 40 43 44 42 42 45 48 49 47 45 46 47 48 52 53 54 54 56 58 61 60 66 70 68 70 70 75 75 75 74 75 79 82 84 86 87 88 90 95 99 101
40 39 40 40 41 42 42 43 43 44 44 43 44 48 52 53 52 53 54 59 62 68 66 67 67 67 72 70 70 70 71 75 77 80 84 86 87 87 90 93 96 100 104
40 41 40 40 41 42 44 46 47 48 48 50 54 55 56 53 49 53 57 58 57 59 63 65 67 69 72 71 73 72 75 78 80 84 87 88 89 90 92 95 100 104 107
43 43 42 45 47 50 46 44 46 51 54 54 53 52 50 47 46 48 51 53 57 60 62 65 68 71 74 75 80 83 82 84 84 89 93 94 93 95 97 99 105 109 112
34 36 39 40 38 40 42 44 49 49 44 42 41 43 45 47 49 51 54 58 59 61 64 67 70 72 76 78 81 83 84 86 88 93 98 97 99 100 102 106 110 114 116
26 24 28 31 30 32 33 33 34 37 40 42 45 48 49 52 54 57 60 63 65 67 70 73 76 78 80 79 83 88 90 90 93 98 100 99 104 104 106 111 113 117 118
37 35 34 34 34 34 36 37 41 43 46 49 52 55 57 60 62 63 66 68 71 74 77 81 83 83 85 83 86 88 91 93 96 102 104 103 108 106 109 114 117 119 118
45 45 44 43 43 44 45 48 51 52 53 55 58 61 64 66 67 69 72 75 74 76 79 83 84 85 88 89 90 94 94 94 100 104 108 109 110 111 113 117 121 122 121
51 51 50 50 51 52 54 57 60 59 61 62 63 65 67 70 72 73 77 78 79 82 84 87 88 89 92 95 95 97 98 100 105 107 112 111 115 118 116 121 125 124 122

GFSMA_250_spd_081.txt.gz
Wind_Speed
35 32 26 30 33 32 27 30 32 30 29 30 32 33 33 35 37 40 38 34 39 46 50 54 50 50 52 55 55 54 53 55 57 60 59 58 56 56 58 58 59 62 63
38 32 30 34 28 28 29 29 32 34 30 34 38 36 40 37 34 33 32 39 48 49 54 53 52 50 53 55 57 55 55 58 63 63 61 57 56 57 57 59 62 64 59
43 35 33 37 34 44 34 32 32 40 38 40 38 42 41 39 32 32 40 41 40 43 49 50 51 52 57 57 57 58 60 64 65 62 59 57 56 57 59 61 61 56 61
37 38 43 39 44 41 47 32 36 40 45 43 39 48 43 38 35 40 42 47 52 57 61 57 56 57 58 59 59 61 65 66 64 62 58 58 60 63 63 53 50 56 63
42 45 47 45 54 44 45 36 41 45 49 48 46 46 44 46 45 53 56 61 62 62 61 61 58 59 59 61 64 66 66 62 60 58 60 60 56 53 53 58 65 72 75
47 49 48 49 53 48 46 47 50 47 48 42 44 49 49 50 52 61 63 62 64 65 65 63 61 60 62 64 64 66 61 58 59 60 57 58 56 54 59 61 68 78 82
48 50 47 52 54 52 55 51 52 54 53 50 50 53 59 61 62 64 62 66 66 66 64 63 60 63 64 65 63 62 61 62 61 55 54 56 54 59 62 70 72 81 76
48 46 50 52 56 58 58 53 57 57 56 53 51 57 62 66 66 61 66 68 69 67 65 63 64 66 64 59 61 62 61 58 56 50 59 59 65 63 67 71 79 85 79
53 53 55 54 52 53 55 56 60 62 58 58 62 61 66 66 63 66 65 67 67 66 62 67 68 64 59 61 64 64 61 60 58 61 61 65 64 67 72 79 87 78 71
47 56 51 57 60 57 56 57 62 62 60 62 64 69 68 66 66 66 65 68 69 67 66 67 64 63 64 66 66 62 61 65 65 67 68 70 73 74 78 83 78 72 68
52 51 52 49 58 64 68 68 65 63 60 64 65 69 70 69 69 70 68 67 69 66 65 65 64 67 66 62 65 66 62 67 56 56 66 67 72 80 78 72 68 69 72
58 59 57 58 59 61 64 67 65 66 68 68 72 72 73 71 69 67 70 66 65 65 64 67 67 61 66 66 64 62 66 68 56 59 64 66 76 71 70 70 71 73 77
59 61 60 58 61 67 68 69 71 68 67 69 70 71 71 67 69 68 66 62 62 64 62 62 62 62 64 60 61 65 60 54 56 61 68 72 67 67 70 71 72 77 81
60 59 61 59 59 61 67 66 64 66 67 66 68 71 70 66 65 63 62 63 61 64 67 58 60 62 64 58 61 60 52 51 65 72 65 70 70 71 73 72 74 77 80
44 45 49 57 58 59 59 59 59 60 63 64 65 67 67 67 65 64 59 62 66 56 53 51 52 56 59 56 54 56 56 62 70 67 70 70 71 71 67 72 73 73 78
33 38 41 43 46 48 49 53 55 56 58 59 57 56 58 59 61 63 64 60 58 55 56 60 58 56 58 49 53 59 66 73 69 69 72 73 74 76 74 77 80 79 82
28 30 33 35 38 42 45 46 48 48 50 51 55 57 57 56 58 58 57 57 56 59 60 61 58 53 52 52 59 69 69 70 69 73 75 76 79 80 78 80 82 84 87
38 38 39 43 45 46 45 47 46 50 50 50 50 50 52 51 51 54 53 55 59 63 61 53 51 52 54 57 61 61 66 68 71 72 79 80 82 86 89 92 92 89 90
44 44 42 42 45 45 45 48 50 50 50 48 48 46 46 48 51 51 55 60 63 58 52 54 55 57 57 57 62 64 66 70 73 77 78 80 81 84 85 88 92 95 94
33 41 48 49 48 48 48 47 48 49 46 49 50 50 53 54 56 57 61 55 48 49 52 56 56 60 63 64 66 69 73 75 80 82 83 86 87 89 90 92 95 97 98
22 23 36 46 51 53 53 52 50 50 51 54 53 52 53 56 57 59 49 49 50 52 55 58 62 66 69 70 74 78 80 83 82 87 88 90 90 93 95 97 100 103 104
29 28 30 30 35 48 50 50 51 51 50 51 54 56 59 53 47 48 49 52 55 57 61 64 68 73 74 75 80 81 81 84 86 87 90 94 96 97 100 99 104 107 106
35 32 34 33 34 34 39 44 42 42 38 41 42 42 44 47 50 53 54 58 60 63 66 69 73 75 77 79 80 85 88 89 89 94 95 96 100 101 103 101 107 109 112
41 40 40 40 40 39 44 44 41 39 41 46 48 49 53 55 56 59 61 63 65 68 70 73 77 79 83 86 87 90 91 92 96 99 102 102 102 103 104 105 109 113 117
43 41 42 44 45 47 48 49 50 50 50 51 52 56 60 61 61 65 68 70 73 74 75 76 78 84 90 92 93 94 97 99 100 104 106 106 105 106 106 110 114 116 117
52 52 51 51 47 51 51 53 53 53 56 59 60 60 62 65 68 70 74 78 80 81 83 84 87 90 92 93 97 100 103 104 105 107 109 111 109 112 112 112 115 118 122

GFSMA_250_spd_084.txt.gz
Wind_Speed
45 48 47 43 39 34 31 35 29 23 27 34 31 29 25 31 30 27 28 32 31 28 33 39 34 38 46 47 50 52 54 55 55 54 56 58 58 61 63 59 58 59 58
47 48 33 45 44 30 28 31 25 21 33 36 29 27 27 32 33 32 31 31 31 30 35 41 44 49 52 51 54 58 58 58 59 58 59 61 62 67 64 61 62 60 62
51 53 43 38 34 31 31 30 30 25 36 34 30 28 30 35 40 33 34 34 34 33 40 48 54 55 55 57 61 61 62 63 63 65 63 65 66 60 61 59 58 66 60
53 53 40 37 31 31 28 30 31 28 32 33 36 35 34 37 42 46 39 39 42 44 47 51 56 59 60 62 65 64 64 66 66 64 66 61 62 60 59 62 65 64 65
59 45 44 38 35 35 35 30 38 34 33 35 34 40 43 46 44 45 42 43 49 48 55 56 55 60 61 65 64 67 67 66 67 67 63 63 64 64 65 66 65 61 63
57 39 44 47 47 42 42 38 36 45 37 34 39 47 51 48 52 45 44 48 49 58 55 62 58 61 64 65 66 67 67 66 65 65 64 64 65 68 71 62 59 59 65
55 48 47 49 49 52 50 45 46 45 50 49 46 51 49 42 44 50 49 54 58 60 66 62 62 65 64 67 68 71 67 71 69 68 67 71 71 70 63 65 66 67 69
52 55 46 46 44 50 51 50 52 54 48 51 52 48 46 52 52 54 57 61 66 64 64 65 66 69 68 68 71 71 69 64 65 68 71 71 70 66 68 69 72 76 70
60 51 56 52 49 50 52 52 48 52 51 54 57 59 59 59 63 66 70 69 71 67 67 68 71 73 73 73 72 69 63 65 69 69 68 69 68 70 69 60 54 60 63
51 59 60 56 59 52 48 51 53 53 58 57 59 61 60 65 65 67 68 67 69 71 74 73 74 73 75 71 61 63 67 69 62 67 64 66 66 67 71 67 66 68 64
51 48 55 58 55 52 50 53 52 53 57 58 59 58 61 65 65 67 66 71 72 72 74 73 76 72 74 66 65 63 64 64 69 65 64 65 71 73 58 61 60 63 66
52 53 52 52 51 52 55 57 54 56 60 63 65 68 71 72 69 70 73 75 76 76 75 73 74 73 67 65 67 64 68 67 66 67 67 71 67 49 54 59 63 63 66
55 52 55 54 56 56 54 56 58 58 59 61 60 64 67 71 73 76 78 80 79 76 72 75 72 68 66 65 67 67 59 63 67 65 67 55 47 50 59 62 65 66 68
58 58 57 58 61 61 64 61 61 64 66 67 70 73 76 77 76 75 75 81 78 70 71 70 67 68 66 65 63 57 63 65 65 64 60 53 55 62 63 65 67 69 72
65 62 63 64 67 66 69 69 68 70 72 74 73 72 73 77 76 72 71 72 72 71 69 70 64 67 62 59 59 64 67 64 62 58 56 52 57 62 64 66 69 72 75
59 61 63 68 69 70 72 73 72 72 73 74 75 75 74 75 72 70 67 70 67 62 63 64 67 59 54 56 59 66 60 55 57 53 54 58 61 65 69 72 74 79 81
37 43 47 50 55 61 66 66 64 66 67 66 64 66 68 66 64 61 62 63 65 67 63 61 58 55 56 59 61 58 55 53 54 56 59 63 66 71 76 78 80 83 83
36 35 35 37 41 42 42 44 46 48 51 54 57 56 56 59 60 62 62 62 63 60 56 54 52 57 61 54 53 55 53 54 56 61 65 69 73 76 78 80 84 88 88
13 33 43 47 44 43 42 45 48 49 52 55 58 57 59 61 60 58 56 52 52 54 54 54 54 61 56 58 57 57 59 60 62 65 69 73 76 77 82 87 89 90 92
24 20 18 24 39 50 50 51 52 53 56 57 57 58 60 58 56 56 54 57 58 58 56 59 57 55 58 61 61 62 63 66 66 67 69 73 77 82 83 87 89 88 91
29 29 26 25 24 22 27 37 47 54 58 58 58 56 58 58 60 60 58 59 62 61 59 53 54 58 61 64 67 69 69 70 69 69 71 76 79 82 87 89 91 93 97
36 33 35 33 32 33 33 32 32 30 29 42 55 56 53 53 51 53 54 53 52 51 53 57 59 62 64 66 70 74 77 78 80 80 82 82 87 87 90 93 95 99 101
41 37 37 37 39 38 40 40 41 39 35 36 40 41 41 44 44 46 47 50 53 57 59 62 64 67 69 73 77 80 83 85 88 91 94 92 94 95 99 100 103 104 105
44 45 45 42 46 49 48 46 45 43 41 45 46 47 48 52 52 54 57 56 59 60 62 65 69 72 76 78 82 85 86 89 92 96 100 99 99 98 100 104 106 108 109
49 50 45 46 45 46 48 51 49 49 48 46 51 55 56 58 59 57 62 65 65 66 67 71 74 78 81 84 87 90 92 95 97 99 102 102 101 100 104 106 109 111 117
57 59 57 50 49 52 53 53 53 54 54 56 55 54 54 57 60 63 66 68 70 72 74 78 81 84 87 90 92 96 98 98 101 101 104 107 109 110 108 109 113 121 123

GFSMA_250_spd_087.txt.gz
Wind_Speed
44 58 56 55 37 36 29 26 28 31 29 29 21 27 27 31 26 24 23 25 25 27 28 25 26 24 28 34 37 39 42 47 52 55 57 58 60 59 60 58 61 61 61
45 42 47 47 42 37 35 38 34 36 31 34 19 33 28 32 28 26 26 28 29 26 28 31 32 32 37 39 43 45 48 52 55 57 60 62 63 64 63 63 66 64 64
46 40 38 42 43 39 36 35 33 31 28 30 26 36 37 29 23 23 28 33 32 31 29 35 40 40 44 47 48 49 51 56 58 61 62 63 64 65 67 65 66 64 63
49 47 47 43 43 38 37 37 35 30 31 29 28 39 31 28 25 31 35 35 38 39 39 39 43 45 47 50 54 58 57 60 64 63 64 64 66 66 66 63 62 63 65
60 53 47 49 47 42 39 35 36 33 32 27 34 45 36 35 29 37 36 40 43 41 42 41 45 50 54 52 58 58 59 65 66 67 65 68 67 65 62 63 67 66 67
67 63 54 56 54 44 42 36 40 34 36 33 34 41 40 42 41 40 48 45 47 50 49 46 50 53 57 59 60 60 63 66 70 71 70 68 65 62 62 65 65 67 65
53 64 60 62 51 42 45 41 45 39 41 40 41 45 45 42 40 41 42 50 53 53 51 52 56 59 64 65 64 64 70 69 71 71 68 63 61 62 62 62 61 64 65
46 52 55 56 55 48 52 45 48 43 44 42 45 45 46 49 52 45 50 50 55 54 57 58 63 66 63 67 68 71 70 71 70 69 69 62 62 62 60 65 63 63 64
46 46 48 55 55 40 48 48 51 51 50 47 43 45 50 49 51 54 54 54 54 60 62 64 66 66 67 69 70 71 71 74 71 67 65 64 65 64 65 63 63 66 69
39 40 49 54 55 52 44 47 45 48 49 49 57 50 51 53 51 58 60 61 60 63 65 69 67 66 69 70 75 75 71 75 66 66 65 65 67 59 64 68 70 72 68
47 42 47 50 55 48 54 54 50 52 49 52 52 56 53 55 56 59 61 63 66 65 67 67 67 72 75 79 77 77 72 69 65 67 64 65 58 59 63 67 69 65 52
46 48 45 51 53 55 57 57 54 58 59 57 55 55 55 56 58 61 64 66 68 69 69 70 72 75 78 78 74 75 64 67 64 62 64 61 59 64 67 69 69 65 66
49 49 49 52 54 55 61 61 59 58 58 58 59 59 59 63 65 66 67 67 70 69 71 76 76 79 74 76 69 65 65 64 64 65 60 59 65 69 69 64 61 57 53
53 54 56 54 57 56 53 54 57 61 60 60 61 62 63 67 67 68 70 70 71 74 77 80 79 78 73 65 65 64 63 64 58 59 60 62 68 67 61 60 58 56 56
58 60 57 61 63 61 61 62 63 62 62 64 65 65 66 69 70 73 75 76 79 78 78 78 76 68 68 69 65 63 62 59 55 58 62 66 62 60 59 59 59 60 62
50 60 63 64 64 65 65 64 65 65 66 69 70 70 72 75 75 76 77 77 77 69 68 70 66 65 62 61 62 60 57 56 58 61 58 54 55 58 59 61 61 63 65
34 49 63 67 71 70 69 68 68 69 71 72 76 78 77 77 80 76 74 74 72 71 58 63 59 63 62 62 62 59 56 56 58 56 56 57 58 61 62 62 64 68 71
15 28 40 55 67 69 75 73 72 72 78 78 76 76 77 77 70 72 69 65 60 60 59 59 61 64 61 56 55 54 58 56 53 57 60 60 62 64 65 66 69 72 73
23 21 19 27 42 46 50 56 59 59 62 63 60 60 61 58 59 62 63 64 64 64 65 66 62 58 60 58 60 59 57 56 57 60 63 66 68 70 73 73 72 76 80
29 29 29 29 27 26 33 44 49 53 52 51 53 57 57 58 60 62 62 64 65 64 64 61 61 58 57 59 56 58 56 60 61 63 68 71 73 75 75 79 80 81 87
35 37 36 34 35 34 33 29 29 30 33 42 53 58 60 59 60 62 63 62 59 59 58 52 46 43 47 51 55 58 61 64 67 66 71 75 79 81 84 85 87 90 94
42 43 43 46 42 41 41 41 38 36 36 37 37 37 38 38 39 42 43 45 48 46 46 47 47 49 52 56 62 64 67 69 73 75 77 79 82 87 91 94 96 100 99
51 49 46 50 52 50 46 44 47 49 48 47 44 43 44 46 46 46 46 46 49 52 54 55 57 58 60 64 67 70 74 75 78 82 84 87 89 93 96 98 99 100 102
60 60 59 54 56 57 56 54 51 49 51 51 53 54 51 51 52 53 54 56 57 58 61 64 65 66 67 68 70 74 78 81 84 86 88 92 95 97 99 101 105 108 109
65 65 65 63 53 61 62 58 58 54 52 51 52 54 56 58 62 64 62 60 64 65 65 66 69 71 72 74 77 81 84 88 90 97 94 95 99 101 103 105 108 109 109
71 74 72 63 58 59 64 68 68 67 62 57 55 55 55 56 59 63 68 71 72 71 71 72 74 76 79 80 81 84 86 89 91 94 98 101 103 102 104 106 104 104 105

GFSMA_250_spd_090.txt.gz
Wind_Speed
47 52 54 53 48 42 37 28 23 20 15 24 26 27 24 22 23 30 33 28 21 18 21 22 22 22 24 30 30 35 34 37 38 46 47 50 51 55 59 59 60 62 57
54 58 54 53 54 45 37 37 32 23 24 27 32 32 31 24 26 34 30 28 26 20 23 26 27 28 26 30 34 38 44 42 43 50 50 50 54 59 62 64 64 60 57
56 54 51 44 36 45 44 41 37 33 33 34 36 33 34 28 31 36 32 31 28 26 28 29 32 29 29 34 39 43 44 48 49 51 53 56 59 66 65 66 66 60 54
53 52 47 37 32 27 37 40 41 39 36 32 40 36 35 35 37 39 34 34 30 31 35 34 33 36 38 39 43 47 48 50 54 56 58 60 64 65 65 67 65 56 54
64 56 48 52 41 36 35 34 35 37 32 35 38 35 34 41 39 44 40 39 37 35 38 37 39 43 42 44 46 49 51 54 59 59 63 64 65 67 64 64 68 57 57
64 68 63 54 55 50 41 41 40 39 33 34 38 36 37 39 47 44 42 40 37 40 41 45 45 45 46 50 53 54 55 60 63 64 66 68 70 67 68 69 60 59 52
60 62 66 64 51 51 55 47 44 42 42 39 43 40 41 45 51 51 48 43 45 40 42 46 48 52 54 60 55 60 62 63 65 66 68 70 73 70 69 64 59 56 55
64 61 64 68 67 57 52 50 47 43 47 45 47 44 46 42 42 51 50 47 47 47 51 52 54 57 57 57 64 65 65 68 67 68 70 74 72 71 70 62 55 58 61
57 56 61 65 65 63 59 54 52 46 53 49 50 50 46 45 43 44 53 53 52 53 56 55 56 58 60 60 63 67 70 68 70 71 73 73 73 70 65 60 56 58 58
45 44 46 58 60 59 58 58 54 55 54 53 52 53 57 50 41 45 48 54 57 61 58 60 61 64 64 66 71 72 72 71 73 72 72 75 73 62 61 58 58 57 59
51 49 45 40 50 52 54 54 55 53 50 51 54 52 52 53 52 54 53 53 57 58 57 58 64 67 71 72 73 74 74 75 75 74 76 76 68 65 61 60 57 58 63
48 46 48 42 43 46 48 56 58 58 53 52 54 53 54 56 55 57 57 60 60 60 62 65 69 69 71 73 76 77 78 79 79 78 75 68 68 66 62 59 57 62 65
42 50 47 44 43 46 48 53 60 62 57 55 57 57 58 61 59 62 63 59 60 61 64 68 71 72 75 77 78 80 81 79 76 77 73 73 64 61 57 57 60 64 62
38 43 46 46 44 48 52 53 56 63 61 62 61 61 60 61 63 64 63 65 66 66 68 72 74 74 74 79 81 81 80 79 79 70 68 64 61 59 58 59 61 57 54
30 35 39 47 46 51 50 53 58 61 64 65 63 64 67 69 67 67 68 69 72 71 72 73 74 77 78 79 80 80 78 74 69 64 60 59 59 60 60 61 56 56 57
21 34 41 35 50 53 54 58 58 61 63 66 64 65 66 66 67 70 72 72 72 74 73 75 79 80 80 79 75 70 66 66 62 63 60 58 59 60 61 58 57 59 61
18 17 30 40 41 44 59 62 61 66 67 67 68 68 70 72 73 73 74 73 72 73 77 85 82 76 70 70 64 62 62 63 58 58 59 61 63 64 64 59 60 62 66
22 22 20 20 31 40 45 51 64 69 70 71 70 72 75 76 76 77 78 80 79 75 70 67 66 64 64 64 64 63 62 62 62 64 64 65 65 64 60 62 65 68 72
24 18 20 24 27 27 29 36 46 55 63 64 65 67 75 75 76 74 70 62 60 59 57 56 57 59 60 65 63 63 64 66 67 64 65 64 61 60 64 67 71 74 75
30 28 25 25 28 29 34 37 36 35 40 48 54 56 58 59 60 59 57 60 62 63 63 60 62 64 63 63 64 64 64 63 57 56 58 59 62 66 70 72 76 78 82
36 35 39 36 34 41 39 37 39 43 42 41 39 39 39 41 48 52 54 57 61 64 66 65 65 67 62 58 57 55 53 56 59 61 64 66 69 72 77 80 83 84 88
43 42 47 47 45 48 48 48 49 42 47 51 48 49 48 46 48 49 48 49 49 49 48 47 48 48 48 52 58 58 61 64 64 67 72 75 78 80 84 86 87 89 91
48 51 50 51 49 54 53 53 52 54 49 50 54 54 55 55 57 57 58 58 57 55 55 58 57 56 57 63 67 68 70 72 74 75 78 80 81 83 85 86 88 91 95
50 50 48 51 56 61 58 57 58 55 54 51 57 59 59 61 59 60 60 58 61 62 61 63 65 64 65 67 69 71 75 75 77 79 79 81 83 87 89 91 93 95 99
52 49 55 55 56 56 56 59 64 63 60 55 56 60 62 61 64 65 65 65 66 65 65 68 70 71 71 71 72 73 74 76 79 80 83 85 87 90 92 93 92 101 103
50 55 59 58 61 61 65 67 70 71 67 67 59 61 63 65 71 73 72 71 69 69 69 69 70 72 75 77 78 79 82 85 88 90 88 91 91 93 97 98 102 108 109

GFSMA_250_spd_093.txt.gz
Wind_Speed
38 39 40 44 46 46 38 34 32 33 29 31 25 16 17 24 27 26 26 27 28 28 26 21 15 13 13 17 20 21 25 28 30 32 37 39 44 47 50 52 54 58 59
36 39 42 48 46 44 42 38 39 32 26 26 25 18 20 22 30 30 28 24 33 30 22 18 20 18 19 18 19 23 28 28 31 37 40 43 47 48 52 54 57 61 65
40 42 48 46 53 51 49 43 38 33 35 31 32 31 31 29 35 33 35 31 36 34 31 25 24 25 25 27 29 33 35 36 39 41 42 46 50 53 55 57 61 63 65
48 50 53 50 51 42 42 47 42 39 38 37 33 33 38 32 33 40 36 40 41 37 36 31 31 30 31 31 31 36 38 42 44 46 50 54 56 61 60 61 64 63 64
54 53 59 58 57 53 45 36 29 35 37 37 36 29 29 37 34 42 41 43 46 43 39 37 36 36 36 33 38 41 42 44 48 50 57 58 61 63 64 64 65 67 67
55 60 61 62 61 59 48 36 28 28 29 34 32 31 30 34 39 43 39 43 48 47 45 43 39 34 38 41 43 48 49 48 50 54 61 62 67 67 67 66 70 66 67
60 62 64 65 67 60 59 58 43 39 38 40 39 41 32 37 41 40 40 46 51 50 50 47 39 43 43 48 50 55 51 49 54 56 58 63 68 70 70 70 70 69 67
57 62 63 63 61 58 59 57 56 55 49 44 41 44 42 34 42 47 46 49 50 53 52 50 49 48 50 53 53 55 54 55 59 62 64 67 70 72 73 76 73 69 64
67 63 62 62 63 62 64 61 58 53 51 53 51 57 49 43 46 49 47 46 55 56 52 56 57 56 57 59 61 60 62 58 64 66 68 72 72 76 77 77 71 68 64
68 71 62 65 62 62 57 60 62 61 51 49 48 49 50 49 46 50 50 46 48 50 52 55 60 61 61 63 68 68 62 61 68 70 72 73 77 76 79 73 68 68 64
43 57 60 53 56 52 57 56 57 58 62 58 52 55 50 54 51 54 55 53 51 51 49 54 58 63 65 67 66 66 64 67 71 72 74 77 79 79 77 72 69 62 61
21 35 49 48 47 48 47 44 43 52 54 60 60 58 57 55 55 60 58 57 56 57 57 58 59 60 65 68 67 68 69 71 73 73 75 77 77 77 72 66 62 62 61
16 18 34 43 43 47 48 44 46 48 51 51 56 62 60 58 55 54 58 56 57 55 57 59 62 66 66 66 69 69 71 76 78 78 78 79 78 76 63 60 63 61 62
19 15 27 41 40 42 46 47 50 45 49 53 54 54 56 59 60 55 56 57 60 62 64 67 66 69 68 71 71 74 77 77 78 79 80 78 75 64 61 61 62 64 61
17 13 16 24 36 37 47 50 47 45 47 51 57 60 61 60 60 62 65 69 68 67 68 70 75 76 74 75 78 79 78 81 83 81 74 69 61 61 63 61 59 59 62
19 18 14 13 27 29 35 44 46 44 51 51 52 56 63 69 71 69 73 71 70 73 76 79 78 78 77 78 78 79 79 77 72 69 66 62 63 64 60 61 62 63 65
17 17 15 15 14 18 33 38 42 48 49 53 54 56 58 61 68 73 74 76 77 72 71 79 78 79 79 78 80 80 73 69 68 65 66 66 65 63 63 65 69 69 70
21 15 13 10 10 13 15 17 26 42 48 53 59 62 64 64 66 69 71 72 75 76 75 77 76 77 81 78 73 69 69 68 67 67 69 70 66 67 69 68 69 68 61
25 21 17 14 17 13 11 9 12 16 20 26 31 37 47 57 66 69 70 71 74 75 75 74 66 66 60 60 61 62 65 67 67 70 72 73 70 69 67 64 60 61 63
32 28 29 26 22 29 28 25 23 24 25 27 24 30 37 40 42 43 45 48 53 56 59 60 57 63 64 65 68 70 69 69 70 71 72 69 63 62 61 63 66 69 71
34 34 36 35 32 31 35 36 35 36 32 35 37 37 34 39 44 46 47 50 49 48 46 45 45 48 50 50 53 56 52 56 56 59 61 64 67 70 72 73 75 76 79
42 41 40 41 38 38 40 40 40 43 41 46 43 45 43 36 40 45 49 54 54 54 54 54 53 54 56 58 59 63 64 66 64 66 68 70 74 74 76 76 77 79 81
43 41 41 40 43 45 43 43 39 43 45 47 50 47 45 46 49 49 57 59 57 59 60 61 59 58 58 60 63 66 68 69 71 71 72 72 75 76 76 78 82 83 84
50 53 52 55 53 53 52 45 46 45 46 51 51 52 51 55 63 62 64 60 59 62 62 62 62 61 64 66 68 68 70 72 74 76 78 79 79 81 83 85 86 87 88
60 61 61 60 61 57 60 59 55 53 54 55 56 65 61 65 65 67 70 74 69 63 58 62 68 70 69 69 71 73 74 76 78 77 73 72 76 77 83 86 86 87 90
63 61 63 62 64 65 66 62 62 65 63 66 68 67 69 74 68 69 71 67 67 67 66 68 74 73 70 71 72 74 77 80 78 80 81 83 82 85 90 93 96 98 99

GFSMA_250_spd_096.txt.gz
Wind_Speed
23 39 48 43 44 35 27 27 22 21 20 24 23 19 20 14 12 15 18 22 26 26 27 23 23 22 20 21 21 21 21 18 20 23 25 26 29 32 36 41 47 49 50
19 38 38 45 42 31 34 32 28 26 25 25 23 21 23 18 14 19 23 30 27 23 28 26 24 24 21 21 18 16 21 21 23 27 32 33 37 37 42 47 50 52 53
25 40 34 40 46 42 47 42 38 35 35 32 28 27 30 29 26 22 25 32 33 29 27 33 32 26 23 22 22 24 25 27 27 29 35 38 40 43 45 50 54 54 56
32 38 36 37 37 42 45 45 43 40 38 35 29 30 33 35 37 35 29 26 33 35 33 40 36 31 29 29 30 27 30 29 32 35 38 42 40 43 45 50 53 56 60
36 37 45 40 43 44 46 45 49 47 46 42 39 36 33 33 33 26 25 28 31 36 39 44 44 41 36 35 31 31 30 35 38 40 44 45 44 47 49 52 54 58 63
44 41 46 48 53 52 48 45 46 46 44 44 34 35 34 33 29 27 27 29 33 40 40 48 48 44 43 39 36 36 37 39 42 44 46 48 50 53 54 56 58 62 66
46 49 52 53 55 53 52 52 45 44 34 33 29 25 26 29 32 29 27 31 30 41 45 50 52 52 50 47 43 45 43 45 48 52 54 57 57 61 58 59 62 67 68
52 52 53 56 60 62 63 56 54 46 40 37 34 37 38 41 41 44 40 41 42 45 44 43 54 57 56 55 50 50 48 51 54 59 62 64 63 60 61 62 65 68 70
59 55 56 57 59 63 60 62 60 63 62 57 55 51 54 53 58 53 53 48 41 46 47 47 50 57 59 58 55 53 58 63 62 62 66 67 65 64 64 67 67 71 72
60 64 61 59 62 60 62 62 65 61 61 59 61 61 58 57 52 52 46 46 43 48 51 49 49 54 57 58 58 62 58 58 60 63 63 62 65 64 67 69 72 75 75
30 61 67 67 63 62 66 61 61 61 65 61 57 57 65 57 54 58 48 47 43 49 48 49 48 51 52 53 54 55 59 58 60 63 63 65 68 69 70 73 73 73 69
5 22 58 66 68 68 67 65 64 60 56 57 61 58 58 61 60 58 55 47 50 53 53 53 54 55 56 59 61 60 60 60 64 64 69 72 71 71 75 76 77 75 69
10 5 16 36 62 67 58 59 53 50 50 49 47 49 50 54 60 59 57 58 55 58 59 58 58 58 59 60 59 61 64 68 68 72 75 74 74 77 79 81 75 68 61
12 11 5 10 20 30 47 51 45 45 47 47 42 45 42 48 53 57 59 62 60 59 58 60 62 62 59 62 66 68 70 74 75 77 78 79 79 78 81 79 73 68 62
13 12 11 6 11 22 26 35 40 39 42 46 45 43 43 46 51 50 54 58 65 67 63 64 64 63 65 67 73 73 75 79 79 81 80 81 81 79 78 74 67 62 62
12 13 10 7 7 11 18 24 28 34 40 42 44 44 43 45 50 53 53 53 55 57 58 61 65 69 71 73 75 78 79 77 78 81 80 80 77 73 69 66 64 64 67
18 18 17 11 6 6 13 22 26 28 31 36 37 42 45 49 52 54 56 58 60 63 67 73 76 78 78 76 77 77 80 79 76 77 69 67 65 64 64 67 68 68 70
20 21 18 13 11 9 10 14 18 23 26 29 36 43 48 51 53 56 56 59 59 58 56 62 69 70 71 74 76 73 66 63 61 64 63 62 63 65 68 69 69 69 69
22 24 22 20 14 12 14 9 8 10 14 17 16 17 20 25 29 32 35 38 43 49 53 54 57 60 61 61 60 60 62 64 64 64 64 63 63 61 62 60 59 58 60
27 27 28 27 25 25 24 25 26 20 24 26 25 27 21 24 22 23 28 33 39 41 42 43 46 50 50 51 52 52 51 51 51 53 54 56 59 61 62 64 64 65 68
32 33 34 33 32 33 32 29 29 29 25 29 30 31 33 36 32 31 29 32 32 32 36 39 36 46 55 56 58 59 56 60 59 60 61 61 64 66 68 70 70 71 72
36 36 38 39 40 39 37 35 31 32 34 34 34 35 36 40 39 40 36 38 36 44 48 46 46 50 51 58 63 63 61 62 61 66 65 64 69 69 71 72 74 75 75
42 40 42 43 44 44 42 39 40 43 43 41 45 40 43 42 45 46 45 47 49 53 54 50 49 53 57 54 58 62 63 63 64 68 71 70 69 70 72 75 77 77 78
46 46 47 47 47 49 46 46 48 49 48 49 52 52 53 51 49 49 55 57 59 57 62 58 57 54 53 59 58 60 61 62 63 69 71 72 71 73 73 77 79 82 83
53 52 52 51 51 53 53 56 58 54 54 52 58 61 63 60 55 61 62 59 61 61 63 66 63 62 64 68 62 63 67 69 72 66 69 74 75 77 79 80 82 83 86
57 55 53 54 55 58 59 60 61 59 59 61 62 60 60 60 62 67 72 71 67 71 73 67 67 68 72 65 64 77 82 85 88 84 80 77 74 79 78 80 82 86 88

GFSMA_250_spd_099.txt.gz
Wind_Speed
29 29 33 40 56 53 49 44 36 36 28 25 24 20 14 11 9 7 9 10 15 19 25 22 23 26 24 27 19 17 19 21 20 23 18 19 21 25 28 32 33 36 36
26 28 29 39 48 57 47 44 41 32 27 31 28 23 20 22 15 10 10 12 17 20 24 21 24 25 23 26 22 22 24 26 24 22 23 23 26 29 33 34 36 39 38
28 23 27 36 45 53 46 38 36 33 30 29 22 24 20 16 16 22 18 18 20 25 29 28 26 26 29 27 24 24 23 22 23 25 27 27 31 33 34 37 40 43 42
30 25 29 35 45 51 45 38 35 39 35 30 27 26 27 21 22 26 27 29 27 22 23 27 28 30 32 31 31 28 27 27 27 27 28 31 34 37 37 38 41 45 50
34 31 32 37 39 44 47 36 43 44 40 39 32 30 27 25 30 28 30 28 25 16 15 22 25 32 42 40 40 35 32 31 29 28 31 35 38 40 44 47 50 51 54
41 34 34 44 39 44 49 45 45 47 43 41 38 38 36 37 31 30 32 29 25 24 22 26 29 32 44 48 46 42 42 41 37 35 36 39 43 45 49 53 55 58 55
47 39 38 42 42 43 46 47 51 47 48 44 41 41 41 33 29 33 34 28 23 27 32 36 39 37 39 53 50 48 47 50 51 47 46 48 49 51 56 53 57 57 56
49 45 45 44 50 49 48 50 50 52 48 47 44 36 34 29 26 28 29 30 36 40 44 42 44 33 40 42 58 56 54 55 54 53 51 54 55 59 55 57 60 58 60
50 52 47 50 52 57 55 55 57 54 53 53 43 44 38 36 36 35 39 42 47 49 46 48 43 40 41 44 47 56 62 60 59 58 60 58 59 57 59 59 60 60 62
37 55 52 51 54 58 58 64 62 63 60 54 52 52 48 45 53 48 52 53 54 52 48 45 43 45 44 46 45 48 54 57 58 59 59 61 58 59 61 63 63 66 68
15 53 59 56 59 53 64 70 67 60 60 60 64 60 60 61 63 64 59 60 61 57 52 48 47 46 45 45 48 51 52 51 53 54 55 57 60 60 62 66 68 70 73
4 18 60 63 64 67 66 67 67 68 64 63 62 58 61 60 62 62 66 59 57 61 56 54 53 52 49 49 51 51 52 54 56 60 63 63 63 64 68 70 74 75 77
8 5 24 51 68 70 70 67 65 64 66 68 65 67 63 67 68 68 63 60 58 60 59 60 59 55 56 55 57 57 59 60 61 64 65 64 66 71 73 74 77 74 75
11 9 6 19 37 68 73 70 68 70 67 63 63 57 56 53 50 50 48 49 46 53 55 54 57 60 62 63 63 61 61 65 66 64 66 68 72 73 73 74 74 74 74
12 12 11 8 11 26 46 65 70 70 69 64 57 53 58 52 54 48 48 45 44 49 53 58 59 58 61 60 62 64 65 65 67 70 72 71 72 76 77 76 79 74 63
13 12 15 13 12 10 20 27 39 51 45 45 52 41 45 45 46 46 50 46 47 48 49 48 50 52 54 57 61 62 63 65 68 73 76 77 77 78 76 73 64 61 58
16 15 14 17 16 13 10 20 27 33 37 38 42 47 48 49 50 50 49 49 48 49 52 53 57 59 63 65 65 66 68 69 70 72 73 74 75 72 68 65 61 60 60
20 20 20 16 15 15 15 15 14 16 20 26 29 34 37 43 46 46 48 46 48 50 53 60 60 62 64 67 68 66 65 65 66 64 61 58 54 52 52 52 53 54 54
27 24 23 23 21 18 16 13 16 19 19 19 21 25 28 29 32 33 34 33 33 32 37 42 44 44 43 39 41 45 51 52 52 54 55 55 54 53 52 53 55 56 57
32 31 29 28 27 26 22 23 23 23 25 25 27 27 27 27 26 28 27 29 28 21 24 22 23 29 32 40 35 38 37 38 44 54 57 57 57 59 59 60 60 61 61
36 37 35 35 32 32 29 29 29 30 30 33 35 35 35 34 36 34 37 40 37 32 35 33 32 35 38 39 41 45 46 42 43 49 52 57 60 60 61 62 64 66 68
44 41 41 40 40 37 36 36 35 36 36 38 38 39 39 39 44 43 44 47 48 42 38 44 43 43 45 48 53 50 52 51 54 53 51 53 57 60 62 64 61 61 67
43 45 45 45 44 44 44 42 42 42 42 43 44 44 45 47 47 45 47 49 49 55 53 52 47 50 46 51 51 55 59 60 58 56 63 57 59 60 61 68 74 77 73
49 49 50 51 51 48 51 50 49 48 48 49 51 50 48 50 50 52 51 53 58 60 59 62 59 57 57 59 59 61 62 63 65 66 70 67 67 71 75 76 79 75 79
52 53 54 53 56 54 54 55 55 54 55 55 55 54 52 51 54 53 56 58 60 60 61 66 70 67 65 67 71 69 71 71 68 74 76 82 81 79 81 82 82 87 86
57 56 55 54 56 56 57 59 60 61 60 59 58 56 55 54 56 59 59 61 64 69 65 67 71 72 75 75 74 76 80 77 84 82 80 83 87 91 89 86 87 89 91

GFSMA_250_spd_102.txt.gz
Wind_Speed
38 37 33 32 36 39 50 55 52 46 41 33 31 24 23 18 16 14 13 9 6 6 10 14 16 19 23 23 23 20 21 21 25 25 24 25 23 24 22 23 23 27 29
37 35 31 32 31 40 48 55 54 49 41 36 34 27 23 19 17 12 11 8 8 10 12 15 17 20 22 24 26 25 21 21 22 25 28 29 25 26 26 26 28 31 32
34 32 29 28 29 39 50 55 56 48 41 39 38 36 29 25 17 14 14 15 12 15 17 17 22 20 25 28 24 29 25 26 27 30 32 29 29 28 29 29 31 32 35
31 32 28 26 31 41 52 56 55 48 44 45 45 39 32 31 22 19 16 18 20 20 19 15 12 12 20 22 25 31 30 29 29 27 28 28 30 31 32 35 36 42 44
29 31 31 27 30 32 43 57 53 52 48 44 39 35 34 26 21 23 24 23 26 28 21 13 11 13 12 16 26 34 35 34 33 34 34 35 34 32 34 35 40 44 45
29 31 36 29 32 31 34 52 50 44 45 47 41 34 35 33 29 25 30 27 26 28 25 23 16 18 25 29 27 35 45 43 43 42 42 42 42 41 43 43 47 49 52
26 32 40 31 32 33 35 45 49 43 43 41 45 45 40 40 36 36 34 31 27 29 30 25 24 31 32 32 35 36 41 54 53 51 49 53 55 54 56 51 52 52 55
24 32 45 37 38 35 38 42 48 47 48 44 46 50 48 39 36 33 36 35 34 37 35 28 32 36 38 39 41 38 42 45 53 56 52 56 57 56 56 55 57 57 57
24 31 46 44 41 39 41 46 49 50 43 48 49 49 46 43 36 39 40 35 33 36 33 32 39 45 44 43 42 40 47 40 47 47 54 59 54 53 54 55 56 57 55
21 25 47 49 43 45 44 48 53 50 50 54 55 53 52 51 49 43 40 41 41 39 40 45 50 50 48 50 47 47 44 45 46 47 48 50 51 52 53 54 53 55 59
15 16 42 51 48 51 50 54 54 57 54 53 59 60 60 54 54 49 50 48 46 48 56 59 58 58 57 55 52 52 50 51 46 46 48 51 53 53 55 58 60 64 63
11 13 17 50 54 50 57 58 60 60 59 60 59 60 63 59 51 57 58 58 60 62 63 63 60 60 57 58 58 57 55 55 53 52 52 54 56 59 61 64 67 67 68
11 6 10 25 60 55 57 65 64 67 69 69 69 67 64 62 61 63 67 68 66 63 65 66 66 57 58 61 60 57 60 59 59 59 59 59 63 64 63 66 67 69 69
12 8 5 9 24 48 66 66 68 71 74 72 72 73 73 71 65 65 64 68 67 68 70 61 53 52 53 53 53 56 56 59 59 59 58 58 62 64 66 68 70 72 72
15 13 10 7 10 23 40 57 72 69 67 71 72 76 76 71 71 74 73 69 69 62 56 55 54 52 53 52 50 50 53 56 59 59 64 65 67 68 70 71 71 73 75
19 17 14 11 12 12 15 28 46 69 65 78 69 60 62 70 72 73 71 69 59 57 59 57 59 57 56 55 57 56 57 55 56 60 62 66 70 73 75 78 78 76 71
23 22 19 17 18 16 14 14 21 30 39 51 60 69 66 62 56 57 55 56 58 60 59 64 61 59 55 56 55 55 59 64 64 67 68 71 72 70 68 67 65 61 59
30 26 23 22 21 20 19 16 16 19 31 35 41 49 52 52 53 56 55 55 59 60 60 63 59 57 57 59 61 63 65 63 60 55 53 54 56 58 59 59 58 57 57
32 31 29 24 25 25 22 20 20 18 20 24 32 38 44 48 49 49 52 55 55 57 57 55 55 52 51 53 53 51 49 39 31 38 37 41 44 44 49 52 54 55 58
34 32 30 33 30 31 29 28 26 28 25 24 23 25 28 33 36 37 39 41 44 42 39 37 40 40 36 41 39 39 35 39 41 43 47 46 43 44 43 40 43 49 54
39 40 37 37 35 38 34 34 34 32 34 34 35 37 37 39 40 40 42 42 41 41 43 41 46 45 48 49 47 50 49 48 50 54 53 50 53 52 57 54 56 57 49
46 44 43 44 45 41 42 40 40 41 40 39 40 41 41 43 45 45 46 47 48 47 49 48 52 53 56 60 55 59 59 59 55 62 58 57 63 63 61 61 62 62 67
52 52 49 48 47 46 48 46 45 45 46 46 46 47 47 47 47 48 49 51 52 55 54 53 53 54 56 59 62 67 69 69 67 66 69 68 69 68 68 67 68 72 75
57 56 53 51 50 54 53 51 49 50 52 52 50 50 51 52 54 56 57 59 62 63 61 62 60 59 61 62 66 65 67 73 78 79 79 76 79 82 77 76 74 78 80
61 57 56 54 55 55 56 55 53 53 55 58 55 53 54 55 55 58 59 61 64 68 66 66 65 64 65 65 68 71 73 74 75 80 84 87 84 85 83 85 86 86 86
64 63 59 58 58 57 59 60 60 58 59 59 61 60 60 60 58 57 60 61 66 70 69 68 67 71 71 73 74 74 76 79 82 84 85 86 87 90 92 93 95 95 95

GFSMA_250_spd_105.txt.gz
Wind_Speed
35 37 40 39 36 33 37 43 47 48 45 48 49 37 34 28 29 24 26 22 16 11 9 7 8 8 12 15 18 24 25 28 19 15 18 24 25 26 26 27 26 26 23
35 39 39 36 32 31 33 44 42 47 45 47 46 35 30 25 19 22 18 18 15 9 5 6 8 9 14 16 21 23 25 19 19 19 22 25 26 27 29 29 31 29 27
35 39 39 34 31 29 34 37 45 47 44 43 46 40 31 27 24 21 18 17 13 13 11 12 12 12 16 20 22 24 22 21 22 21 27 27 29 31 33 34 33 31 33
36 39 37 37 32 29 31 39 41 49 51 48 46 41 38 34 27 25 21 22 18 14 15 16 16 11 8 9 10 18 21 24 27 28 28 33 36 38 37 34 34 34 37
36 37 36 36 32 29 29 33 42 50 53 53 47 41 41 37 32 31 24 21 20 18 20 24 21 14 5 6 11 17 19 21 30 33 35 37 37 36 36 38 38 38 40
34 34 37 38 31 29 26 29 38 52 51 55 48 47 40 38 37 34 32 29 28 25 23 22 23 24 17 15 18 21 23 26 27 39 41 39 42 43 45 45 46 48 47
33 33 36 32 27 29 28 32 31 48 51 54 52 48 45 39 37 38 32 31 32 28 27 27 26 28 24 22 24 27 32 34 35 37 37 49 51 52 52 52 53 53 52
31 32 34 29 27 33 31 27 28 41 51 52 50 49 49 45 41 39 38 40 42 38 38 32 32 28 28 26 31 34 36 39 39 41 44 44 46 51 52 51 48 48 50
27 31 33 26 29 34 33 27 28 32 47 51 46 44 52 50 50 44 45 47 42 41 34 37 37 35 34 34 34 42 46 46 44 43 46 47 43 46 49 49 52 52 54
24 29 28 27 27 40 36 30 29 37 49 51 47 39 47 45 53 53 51 52 49 44 36 40 37 36 44 39 42 50 55 54 54 53 50 49 50 48 49 49 51 52 56
22 25 24 24 26 42 38 36 35 40 42 51 47 52 56 53 56 50 49 47 49 49 41 44 47 41 47 49 56 59 54 58 60 57 60 56 55 56 54 54 53 54 57
23 23 23 23 25 45 42 43 42 44 48 52 53 54 59 59 58 57 56 54 54 54 47 47 51 54 58 58 63 62 61 63 64 61 60 59 57 57 59 59 58 60 60
22 20 18 20 18 49 49 47 49 44 50 53 55 61 60 60 60 61 63 62 64 60 55 55 59 61 64 67 64 65 69 61 57 57 56 53 54 58 62 62 61 60 61
21 19 17 17 18 31 56 50 51 55 53 56 59 58 61 61 63 66 64 62 62 63 63 62 64 66 65 66 72 66 61 59 58 55 52 57 59 57 60 62 61 63 65
24 18 16 16 17 15 43 60 56 55 59 61 60 64 64 63 63 64 66 67 70 70 68 72 67 68 71 76 73 71 65 63 61 58 57 58 61 65 67 62 64 67 67
28 24 18 13 10 12 16 28 57 64 60 60 65 72 73 71 71 71 73 75 75 72 73 74 77 80 79 73 70 67 66 69 65 63 61 59 57 60 63 67 67 70 74
33 27 21 17 14 13 14 15 19 30 51 68 76 70 67 74 80 82 82 82 84 85 83 83 79 79 75 72 70 70 69 68 65 65 64 66 67 69 73 73 71 71 71
36 31 26 22 22 22 20 20 19 20 23 30 40 58 79 78 68 67 64 65 70 70 71 73 73 71 70 69 71 70 70 69 70 68 69 68 66 63 61 57 56 52 50
42 38 36 30 29 27 26 26 26 25 24 22 25 28 32 38 46 53 58 60 57 59 58 58 64 64 63 65 65 64 63 60 59 61 59 60 59 52 46 46 47 45 45
44 42 37 34 31 33 32 31 30 30 29 30 29 27 28 31 36 41 48 53 57 59 59 57 55 55 51 51 52 49 48 49 50 49 48 50 50 55 55 57 58 54 56
45 43 41 37 36 35 34 35 35 37 35 33 33 35 34 34 35 37 41 43 45 45 46 48 49 49 51 51 52 54 52 57 56 58 57 60 62 66 68 69 68 70 72
47 43 43 41 38 39 43 44 44 44 42 41 39 39 42 42 42 44 47 48 50 53 55 54 56 59 61 61 62 65 65 66 67 69 68 68 70 72 73 72 75 77 78
47 49 50 49 49 49 48 48 47 48 50 50 48 48 47 48 45 46 46 48 49 49 51 51 55 58 60 63 66 69 70 70 71 74 73 72 74 75 76 74 74 76 79
47 43 53 50 53 55 54 53 51 52 55 56 55 52 51 50 51 52 53 53 52 53 53 54 58 58 61 64 68 71 75 77 77 77 74 74 75 77 78 79 81 79 82
57 61 61 60 60 61 59 59 60 58 58 58 56 55 55 54 55 57 58 59 59 58 58 58 59 59 59 62 64 70 72 73 75 77 77 79 82 86 88 87 87 90 91
54 58 59 64 63 66 67 63 63 61 61 61 61 61 60 61 61 62 62 63 63 64 65 65 67 67 68 70 71 71 70 75 79 80 81 83 85 87 88 91 95 96 98